Wetterdaten: Montag, 04.04.2016
Datum Zeit Temp. Aussen Temp. o. S. +5cm Feuchte Auss BlattFeu 1 Luftdruck Regen Sonnenschein Regendauer Solar Windben Empfang
04.04.2016 00:00 14,8 C 15,0 C 13,3 C 84 % 0 lf 1006,7 hPa 0,0 l/m 0 min 0 min 0 W/m 16,7 km/h (3 Bft) 95,74 %
04.04.2016 00:02 14,8 C 15,0 C 13,3 C 84 % 0 lf 1006,6 hPa 0,0 l/m 0 min 0 min 0 W/m 18,8 km/h (3 Bft) 95,35 %
04.04.2016 00:04 14,8 C 15,0 C 13,3 C 84 % 0 lf 1006,6 hPa 0,0 l/m 0 min 0 min 0 W/m 16,7 km/h (3 Bft) 94,29 %
04.04.2016 00:06 14,8 C 15,0 C 13,3 C 84 % 0 lf 1006,5 hPa 0,0 l/m 0 min 0 min 0 W/m 16,7 km/h (3 Bft) 91,38 %
04.04.2016 00:08 14,8 C 15,0 C 13,3 C 84 % 0 lf 1006,5 hPa 0,0 l/m 0 min 0 min 0 W/m 18,8 km/h (3 Bft) 97,22 %
04.04.2016 00:10 14,8 C 15,0 C 13,3 C 84 % 0 lf 1006,5 hPa 0,0 l/m 0 min 0 min 0 W/m 20,9 km/h (4 Bft) 95,65 %
04.04.2016 00:12 14,8 C 15,0 C 13,3 C 84 % 0 lf 1006,5 hPa 0,0 l/m 0 min 0 min 0 W/m 14,6 km/h (3 Bft) 89,83 %
04.04.2016 00:14 14,8 C 15,0 C 13,3 C 84 % 0 lf 1006,5 hPa 0,0 l/m 0 min 0 min 0 W/m 14,6 km/h (3 Bft) 94,29 %
04.04.2016 00:16 14,8 C 15,0 C 13,3 C 84 % 0 lf 1006,5 hPa 0,0 l/m 0 min 0 min 0 W/m 18,8 km/h (3 Bft) 95,74 %
04.04.2016 00:18 14,8 C 15,0 C 13,3 C 84 % 0 lf 1006,5 hPa 0,0 l/m 0 min 0 min 0 W/m 12,6 km/h (3 Bft) 93,62 %
04.04.2016 00:20 14,8 C 15,0 C 13,3 C 84 % 0 lf 1006,5 hPa 0,0 l/m 0 min 0 min 0 W/m 10,5 km/h (2 Bft) 91,38 %
04.04.2016 00:22 14,8 C 15,0 C 13,3 C 85 % 0 lf 1006,5 hPa 0,0 l/m 0 min 0 min 0 W/m 14,6 km/h (3 Bft) 93,62 %
04.04.2016 00:24 14,8 C 15,0 C 13,3 C 85 % 0 lf 1006,5 hPa 0,0 l/m 0 min 0 min 0 W/m 25,1 km/h (4 Bft) 97,14 %
04.04.2016 00:26 14,8 C 15,0 C 12,8 C 85 % 0 lf 1006,5 hPa 0,0 l/m 0 min 0 min 0 W/m 14,6 km/h (3 Bft) 91,49 %
04.04.2016 00:28 14,8 C 14,4 C 12,8 C 85 % 1 lf 1006,4 hPa 0,0 l/m 0 min 0 min 0 W/m 20,9 km/h (4 Bft) 96,61 %
04.04.2016 00:30 14,8 C 14,4 C 12,8 C 85 % 0 lf 1006,4 hPa 0,0 l/m 0 min 2 min 0 W/m 23,0 km/h (4 Bft) 97,14 %
04.04.2016 00:32 14,8 C 14,4 C 12,8 C 85 % 1 lf 1006,4 hPa 0,0 l/m 0 min 2 min 0 W/m 18,8 km/h (3 Bft) 98,28 %
04.04.2016 00:34 14,8 C 13,9 C 12,8 C 85 % 1 lf 1006,4 hPa 0,0 l/m 0 min 2 min 0 W/m 18,8 km/h (3 Bft) 91,43 %
04.04.2016 00:36 14,8 C 13,9 C 12,2 C 85 % 2 lf 1006,5 hPa 0,0 l/m 0 min 2 min 0 W/m 16,7 km/h (3 Bft) 97,87 %
04.04.2016 00:38 14,7 C 13,9 C 12,2 C 85 % 1 lf 1006,4 hPa 0,0 l/m 0 min 2 min 0 W/m 25,1 km/h (4 Bft) 93,62 %
04.04.2016 00:40 14,7 C 13,9 C 12,2 C 86 % 1 lf 1006,4 hPa 0,0 l/m 0 min 2 min 0 W/m 18,8 km/h (3 Bft) 91,49 %
04.04.2016 00:42 14,7 C 13,9 C 12,2 C 86 % 0 lf 1006,3 hPa 0,0 l/m 0 min 2 min 0 W/m 18,8 km/h (3 Bft) 97,87 %
04.04.2016 00:44 14,7 C 13,9 C 12,2 C 86 % 0 lf 1006,4 hPa 0,0 l/m 0 min 0 min 0 W/m 23,0 km/h (4 Bft) 96,55 %
04.04.2016 00:46 14,7 C 13,9 C 12,2 C 86 % 0 lf 1006,4 hPa 0,0 l/m 0 min 0 min 0 W/m 16,7 km/h (3 Bft) 95,74 %
04.04.2016 00:48 14,6 C 13,9 C 12,2 C 86 % 0 lf 1006,3 hPa 0,0 l/m 0 min 0 min 0 W/m 18,8 km/h (3 Bft) 91,43 %
04.04.2016 00:50 14,6 C 14,4 C 12,2 C 87 % 0 lf 1006,4 hPa 0,0 l/m 0 min 0 min 0 W/m 18,8 km/h (3 Bft) 98,31 %
04.04.2016 00:52 14,6 C 13,9 C 12,2 C 87 % 0 lf 1006,3 hPa 0,0 l/m 0 min 2 min 0 W/m 18,8 km/h (3 Bft) 97,14 %
04.04.2016 00:54 14,6 C 13,9 C 12,2 C 87 % 0 lf 1006,4 hPa 0,0 l/m 0 min 2 min 0 W/m 18,8 km/h (3 Bft) 98,28 %
04.04.2016 00:56 14,5 C 13,9 C 12,2 C 87 % 0 lf 1006,4 hPa 0,0 l/m 0 min 2 min 0 W/m 18,8 km/h (3 Bft) 95,74 %
04.04.2016 00:58 14,5 C 13,9 C 12,2 C 87 % 0 lf 1006,4 hPa 0,0 l/m 0 min 2 min 0 W/m 14,6 km/h (3 Bft) 97,87 %
04.04.2016 01:00 14,4 C 13,3 C 11,7 C 87 % 0 lf 1006,4 hPa 0,0 l/m 0 min 2 min 0 W/m 18,8 km/h (3 Bft) 97,14 %
04.04.2016 01:02 14,4 C 12,8 C 11,7 C 88 % 1 lf 1006,3 hPa 0,0 l/m 0 min 2 min 0 W/m 16,7 km/h (3 Bft) 93,22 %
04.04.2016 01:04 14,4 C 12,8 C 11,7 C 88 % 1 lf 1006,4 hPa 0,0 l/m 0 min 2 min 0 W/m 20,9 km/h (4 Bft) 95,65 %
04.04.2016 01:06 14,3 C 12,8 C 11,7 C 88 % 0 lf 1006,3 hPa 0,0 l/m 0 min 2 min 0 W/m 18,8 km/h (3 Bft) 100,00 %
04.04.2016 01:08 14,3 C 12,8 C 11,7 C 88 % 0 lf 1006,3 hPa 0,2 l/m 0 min 2 min 0 W/m 18,8 km/h (3 Bft) 96,55 %
04.04.2016 01:10 14,2 C 12,8 C 11,7 C 89 % 0 lf 1006,4 hPa 0,0 l/m 0 min 2 min 0 W/m 20,9 km/h (4 Bft) 97,87 %
04.04.2016 01:12 14,2 C 12,8 C 11,7 C 89 % 1 lf 1006,3 hPa 0,0 l/m 0 min 2 min 0 W/m 18,8 km/h (3 Bft) 94,29 %
04.04.2016 01:14 14,2 C 12,8 C 11,7 C 89 % 4 lf 1006,3 hPa 0,2 l/m 0 min 2 min 0 W/m 20,9 km/h (4 Bft) 96,61 %
04.04.2016 01:16 14,2 C 12,8 C 11,7 C 90 % 5 lf 1006,3 hPa 0,0 l/m 0 min 2 min 0 W/m 20,9 km/h (4 Bft) 95,65 %
04.04.2016 01:18 14,2 C 12,8 C 11,7 C 90 % 4 lf 1006,2 hPa 0,0 l/m 0 min 2 min 0 W/m 16,7 km/h (3 Bft) 97,87 %
04.04.2016 01:20 14,2 C 12,8 C 11,7 C 90 % 10 lf 1006,2 hPa 0,0 l/m 0 min 2 min 0 W/m 16,7 km/h (3 Bft) 97,87 %
04.04.2016 01:22 14,2 C 12,8 C 11,7 C 90 % 10 lf 1006,2 hPa 0,0 l/m 0 min 2 min 0 W/m 16,7 km/h (3 Bft) 94,29 %
04.04.2016 01:24 14,1 C 12,8 C 11,7 C 90 % 10 lf 1006,1 hPa 0,2 l/m 0 min 2 min 0 W/m 16,7 km/h (3 Bft) 98,31 %
04.04.2016 01:26 14,0 C 12,8 C 11,7 C 91 % 10 lf 1006,1 hPa 0,0 l/m 0 min 2 min 0 W/m 18,8 km/h (3 Bft) 93,62 %
04.04.2016 01:28 14,0 C 12,8 C 11,7 C 91 % 10 lf 1006,1 hPa 0,2 l/m 0 min 2 min 0 W/m 18,8 km/h (3 Bft) 100,00 %
04.04.2016 01:30 13,9 C 12,8 C 11,7 C 91 % 10 lf 1006,1 hPa 0,0 l/m 0 min 2 min 0 W/m 16,7 km/h (3 Bft) 100,00 %
04.04.2016 01:32 13,9 C 12,8 C 11,7 C 91 % 15 lf 1006,1 hPa 0,0 l/m 0 min 2 min 0 W/m 20,9 km/h (4 Bft) 97,14 %
04.04.2016 01:34 13,8 C 12,8 C 11,7 C 91 % 14 lf 1006,1 hPa 0,0 l/m 0 min 2 min 0 W/m 16,7 km/h (3 Bft) 98,31 %
04.04.2016 01:36 13,8 C 12,8 C 11,7 C 91 % 14 lf 1006,1 hPa 0,0 l/m 0 min 2 min 0 W/m 16,7 km/h (3 Bft) 97,14 %
04.04.2016 01:38 13,8 C 12,8 C 11,7 C 92 % 15 lf 1006,1 hPa 0,0 l/m 0 min 2 min 0 W/m 12,6 km/h (3 Bft) 96,61 %
04.04.2016 01:40 13,7 C 12,8 C 11,7 C 92 % 15 lf 1006,1 hPa 0,0 l/m 0 min 2 min 0 W/m 16,7 km/h (3 Bft) 97,83 %
04.04.2016 01:42 13,7 C 12,8 C 11,1 C 92 % 15 lf 1006,1 hPa 0,0 l/m 0 min 2 min 0 W/m 14,6 km/h (3 Bft) 88,57 %
04.04.2016 01:44 13,7 C 12,8 C 11,1 C 92 % 15 lf 1006,1 hPa 0,0 l/m 0 min 2 min 0 W/m 20,9 km/h (4 Bft) 95,74 %
04.04.2016 01:46 13,6 C 12,8 C 11,1 C 92 % 15 lf 1006,1 hPa 0,0 l/m 0 min 2 min 0 W/m 18,8 km/h (3 Bft) 97,87 %
04.04.2016 01:48 13,6 C 12,8 C 11,1 C 92 % 15 lf 1006,1 hPa 0,0 l/m 0 min 2 min 0 W/m 16,7 km/h (3 Bft) 96,61 %
04.04.2016 01:50 13,6 C 12,8 C 11,1 C 93 % 15 lf 1006,1 hPa 0,2 l/m 0 min 2 min 0 W/m 16,7 km/h (3 Bft) 94,29 %
04.04.2016 01:52 13,5 C 12,8 C 11,1 C 93 % 15 lf 1006,0 hPa 0,0 l/m 0 min 2 min 0 W/m 16,7 km/h (3 Bft) 94,83 %
04.04.2016 01:54 13,5 C 12,8 C 11,1 C 93 % 14 lf 1006,0 hPa 0,0 l/m 0 min 2 min 0 W/m 14,6 km/h (3 Bft) 94,44 %
04.04.2016 01:56 13,4 C 12,8 C 11,1 C 93 % 15 lf 1006,0 hPa 0,0 l/m 0 min 2 min 0 W/m 16,7 km/h (3 Bft) 94,83 %
04.04.2016 01:58 13,4 C 12,8 C 11,1 C 93 % 15 lf 1005,9 hPa 0,0 l/m 0 min 2 min 0 W/m 14,6 km/h (3 Bft) 97,87 %
04.04.2016 02:00 13,4 C 12,8 C 11,1 C 93 % 15 lf 1005,8 hPa 0,0 l/m 0 min 2 min 0 W/m 18,8 km/h (3 Bft) 95,74 %
04.04.2016 02:02 13,4 C 12,8 C 11,1 C 93 % 15 lf 1005,8 hPa 0,0 l/m 0 min 0 min 0 W/m 14,6 km/h (3 Bft) 91,30 %
04.04.2016 02:04 13,4 C 12,8 C 11,1 C 93 % 14 lf 1005,8 hPa 0,0 l/m 0 min 0 min 0 W/m 18,8 km/h (3 Bft) 93,62 %
04.04.2016 02:06 13,3 C 12,2 C 11,1 C 93 % 14 lf 1005,8 hPa 0,0 l/m 0 min 0 min 0 W/m 18,8 km/h (3 Bft) 91,43 %
04.04.2016 02:08 13,3 C 12,2 C 11,1 C 94 % 14 lf 1005,7 hPa 0,0 l/m 0 min 0 min 0 W/m 14,6 km/h (3 Bft) 96,61 %
04.04.2016 02:10 13,3 C 12,2 C 11,1 C 94 % 14 lf 1005,7 hPa 0,0 l/m 0 min 0 min 0 W/m 14,6 km/h (3 Bft) 95,74 %
04.04.2016 02:12 13,3 C 12,2 C 11,1 C 94 % 13 lf 1005,7 hPa 0,0 l/m 0 min 0 min 0 W/m 18,8 km/h (3 Bft) 91,43 %
04.04.2016 02:14 13,2 C 12,2 C 11,1 C 94 % 13 lf 1005,6 hPa 0,0 l/m 0 min 0 min 0 W/m 20,9 km/h (4 Bft) 94,92 %
04.04.2016 02:16 13,2 C 12,2 C 11,1 C 94 % 12 lf 1005,6 hPa 0,0 l/m 0 min 0 min 0 W/m 20,9 km/h (4 Bft) 93,48 %
04.04.2016 02:18 13,2 C 12,2 C 11,1 C 94 % 11 lf 1005,6 hPa 0,0 l/m 0 min 0 min 0 W/m 14,6 km/h (3 Bft) 97,87 %
04.04.2016 02:20 13,2 C 12,2 C 11,1 C 94 % 10 lf 1005,6 hPa 0,0 l/m 0 min 0 min 0 W/m 16,7 km/h (3 Bft) 93,62 %
04.04.2016 02:22 13,2 C 12,2 C 11,1 C 94 % 9 lf 1005,5 hPa 0,0 l/m 0 min 0 min 0 W/m 12,6 km/h (3 Bft) 100,00 %
04.04.2016 02:24 13,2 C 12,2 C 11,1 C 94 % 7 lf 1005,6 hPa 0,0 l/m 0 min 0 min 0 W/m 14,6 km/h (3 Bft) 96,61 %
04.04.2016 02:26 13,2 C 12,2 C 11,1 C 94 % 5 lf 1005,6 hPa 0,0 l/m 0 min 0 min 0 W/m 16,7 km/h (3 Bft) 95,65 %
04.04.2016 02:28 13,1 C 12,2 C 11,1 C 94 % 4 lf 1005,6 hPa 0,0 l/m 0 min 0 min 0 W/m 16,7 km/h (3 Bft) 97,87 %
04.04.2016 02:30 13,1 C 12,2 C 11,1 C 94 % 3 lf 1005,6 hPa 0,0 l/m 0 min 0 min 0 W/m 14,6 km/h (3 Bft) 93,62 %
04.04.2016 02:32 13,1 C 12,2 C 11,1 C 94 % 2 lf 1005,5 hPa 0,0 l/m 0 min 0 min 0 W/m 12,6 km/h (3 Bft) 95,74 %
04.04.2016 02:34 13,1 C 12,8 C 11,1 C 94 % 1 lf 1005,4 hPa 0,0 l/m 0 min 0 min 0 W/m 12,6 km/h (3 Bft) 97,87 %
04.04.2016 02:36 13,1 C 12,8 C 11,1 C 94 % 1 lf 1005,4 hPa 0,0 l/m 0 min 0 min 0 W/m 16,7 km/h (3 Bft) 95,74 %
04.04.2016 02:38 13,1 C 12,8 C 11,1 C 94 % 1 lf 1005,4 hPa 0,0 l/m 0 min 0 min 0 W/m 12,6 km/h (3 Bft) 100,00 %
04.04.2016 02:40 13,1 C 12,8 C 11,1 C 94 % 1 lf 1005,3 hPa 0,0 l/m 0 min 0 min 0 W/m 12,6 km/h (3 Bft) 97,87 %
04.04.2016 02:42 13,1 C 12,8 C 11,1 C 95 % 1 lf 1005,3 hPa 0,0 l/m 0 min 0 min 0 W/m 16,7 km/h (3 Bft) 95,74 %
04.04.2016 02:44 13,1 C 12,8 C 11,1 C 95 % 1 lf 1005,3 hPa 0,0 l/m 0 min 0 min 0 W/m 12,6 km/h (3 Bft) 97,87 %
04.04.2016 02:46 13,1 C 12,8 C 11,1 C 95 % 1 lf 1005,2 hPa 0,0 l/m 0 min 0 min 0 W/m 14,6 km/h (3 Bft) 100,00 %
04.04.2016 02:48 13,1 C 12,8 C 11,1 C 95 % 1 lf 1005,2 hPa 0,0 l/m 0 min 0 min 0 W/m 10,5 km/h (2 Bft) 96,61 %
04.04.2016 02:50 13,1 C 12,8 C 11,1 C 95 % 1 lf 1005,2 hPa 0,0 l/m 0 min 0 min 0 W/m 10,5 km/h (2 Bft) 97,83 %
04.04.2016 02:52 13,1 C 12,8 C 11,1 C 95 % 1 lf 1005,2 hPa 0,0 l/m 0 min 0 min 0 W/m 14,6 km/h (3 Bft) 97,87 %
04.04.2016 02:54 13,1 C 12,2 C 11,1 C 95 % 1 lf 1005,2 hPa 0,0 l/m 0 min 0 min 0 W/m 12,6 km/h (3 Bft) 94,29 %
04.04.2016 02:56 13,0 C 12,2 C 11,1 C 95 % 1 lf 1005,2 hPa 0,0 l/m 0 min 0 min 0 W/m 12,6 km/h (3 Bft) 95,74 %
04.04.2016 02:58 13,0 C 12,2 C 11,1 C 95 % 1 lf 1005,1 hPa 0,0 l/m 0 min 0 min 0 W/m 18,8 km/h (3 Bft) 97,87 %
04.04.2016 03:00 13,0 C 12,2 C 11,1 C 95 % 1 lf 1005,1 hPa 0,0 l/m 0 min 0 min 0 W/m 14,6 km/h (3 Bft) 94,92 %
04.04.2016 03:02 13,0 C 12,2 C 11,1 C 95 % 1 lf 1005,1 hPa 0,0 l/m 0 min 0 min 0 W/m 14,6 km/h (3 Bft) 100,00 %
04.04.2016 03:04 12,9 C 12,2 C 11,1 C 95 % 1 lf 1005,0 hPa 0,0 l/m 0 min 0 min 0 W/m 14,6 km/h (3 Bft) 96,55 %
04.04.2016 03:06 12,9 C 12,2 C 10,6 C 95 % 1 lf 1005,0 hPa 0,0 l/m 0 min 0 min 0 W/m 16,7 km/h (3 Bft) 94,29 %
04.04.2016 03:08 12,9 C 12,2 C 10,6 C 95 % 1 lf 1004,9 hPa 0,0 l/m 0 min 0 min 0 W/m 16,7 km/h (3 Bft) 97,87 %
04.04.2016 03:10 12,9 C 12,2 C 10,6 C 95 % 1 lf 1004,9 hPa 0,0 l/m 0 min 0 min 0 W/m 12,6 km/h (3 Bft) 91,49 %
04.04.2016 03:12 12,9 C 12,2 C 10,6 C 95 % 1 lf 1004,8 hPa 0,0 l/m 0 min 0 min 0 W/m 16,7 km/h (3 Bft) 95,74 %
04.04.2016 03:14 12,9 C 12,2 C 10,6 C 95 % 1 lf 1004,8 hPa 0,0 l/m 0 min 0 min 0 W/m 14,6 km/h (3 Bft) 100,00 %
04.04.2016 03:16 12,9 C 12,2 C 10,6 C 95 % 1 lf 1004,9 hPa 0,0 l/m 0 min 0 min 0 W/m 14,6 km/h (3 Bft) 100,00 %
04.04.2016 03:18 12,8 C 12,2 C 10,6 C 95 % 1 lf 1004,8 hPa 0,0 l/m 0 min 0 min 0 W/m 12,6 km/h (3 Bft) 97,87 %
04.04.2016 03:20 12,8 C 12,2 C 10,6 C 95 % 1 lf 1004,9 hPa 0,0 l/m 0 min 0 min 0 W/m 12,6 km/h (3 Bft) 98,31 %
04.04.2016 03:22 12,8 C 12,2 C 10,6 C 95 % 1 lf 1004,8 hPa 0,0 l/m 0 min 0 min 0 W/m 10,5 km/h (2 Bft) 100,00 %
04.04.2016 03:24 12,8 C 12,2 C 10,6 C 95 % 1 lf 1004,8 hPa 0,0 l/m 0 min 0 min 0 W/m 14,6 km/h (3 Bft) 95,74 %
04.04.2016 03:26 12,8 C 12,2 C 10,6 C 95 % 1 lf 1004,8 hPa 0,0 l/m 0 min 0 min 0 W/m 18,8 km/h (3 Bft) 97,87 %
04.04.2016 03:28 12,8 C 12,2 C 10,6 C 95 % 1 lf 1004,7 hPa 0,0 l/m 0 min 0 min 0 W/m 16,7 km/h (3 Bft) 93,48 %
04.04.2016 03:30 12,8 C 12,2 C 10,6 C 95 % 1 lf 1004,7 hPa 0,0 l/m 0 min 0 min 0 W/m 12,6 km/h (3 Bft) 97,87 %
04.04.2016 03:32 12,8 C 12,2 C 10,6 C 95 % 1 lf 1004,6 hPa 0,0 l/m 0 min 0 min 0 W/m 16,7 km/h (3 Bft) 100,00 %
04.04.2016 03:34 12,8 C 12,2 C 10,6 C 95 % 1 lf 1004,6 hPa 0,0 l/m 0 min 0 min 0 W/m 14,6 km/h (3 Bft) 100,00 %
04.04.2016 03:36 12,8 C 12,2 C 10,6 C 95 % 1 lf 1004,6 hPa 0,0 l/m 0 min 0 min 0 W/m 16,7 km/h (3 Bft) 100,00 %
04.04.2016 03:38 12,7 C 12,2 C 10,6 C 95 % 1 lf 1004,6 hPa 0,0 l/m 0 min 0 min 0 W/m 16,7 km/h (3 Bft) 97,22 %
04.04.2016 03:40 12,7 C 12,2 C 10,6 C 95 % 0 lf 1004,6 hPa 0,0 l/m 0 min 0 min 0 W/m 14,6 km/h (3 Bft) 95,65 %
04.04.2016 03:42 12,7 C 12,2 C 10,6 C 95 % 0 lf 1004,6 hPa 0,0 l/m 0 min 0 min 0 W/m 16,7 km/h (3 Bft) 97,87 %
04.04.2016 03:44 12,7 C 12,2 C 10,6 C 95 % 0 lf 1004,6 hPa 0,0 l/m 0 min 0 min 0 W/m 14,6 km/h (3 Bft) 97,87 %
04.04.2016 03:46 12,7 C 12,2 C 10,6 C 95 % 0 lf 1004,7 hPa 0,0 l/m 0 min 0 min 0 W/m 16,7 km/h (3 Bft) 93,62 %
04.04.2016 03:48 12,7 C 12,2 C 10,6 C 95 % 0 lf 1004,7 hPa 0,0 l/m 0 min 0 min 0 W/m 14,6 km/h (3 Bft) 97,87 %
04.04.2016 03:50 12,7 C 12,2 C 10,6 C 94 % 0 lf 1004,6 hPa 0,0 l/m 0 min 0 min 0 W/m 12,6 km/h (3 Bft) 96,55 %
04.04.2016 03:52 12,7 C 12,2 C 10,6 C 94 % 0 lf 1004,6 hPa 0,0 l/m 0 min 0 min 0 W/m 14,6 km/h (3 Bft) 95,74 %
04.04.2016 03:54 12,7 C 12,2 C 10,6 C 94 % 0 lf 1004,6 hPa 0,0 l/m 0 min 0 min 0 W/m 14,6 km/h (3 Bft) 97,87 %
04.04.2016 03:56 12,7 C 12,2 C 10,6 C 94 % 0 lf 1004,6 hPa 0,0 l/m 0 min 0 min 0 W/m 10,5 km/h (2 Bft) 100,00 %
04.04.2016 03:58 12,7 C 12,2 C 10,6 C 94 % 0 lf 1004,6 hPa 0,0 l/m 0 min 0 min 0 W/m 10,5 km/h (2 Bft) 95,74 %
04.04.2016 04:00 12,7 C 12,2 C 10,6 C 94 % 0 lf 1004,6 hPa 0,0 l/m 0 min 0 min 0 W/m 8,4 km/h (2 Bft) 97,87 %
04.04.2016 04:02 12,7 C 12,2 C 10,6 C 94 % 0 lf 1004,6 hPa 0,0 l/m 0 min 0 min 0 W/m 12,6 km/h (3 Bft) 100,00 %
04.04.2016 04:04 12,6 C 11,7 C 10,6 C 94 % 0 lf 1004,6 hPa 0,0 l/m 0 min 0 min 0 W/m 10,5 km/h (2 Bft) 96,55 %
04.04.2016 04:06 12,6 C 11,7 C 10,0 C 94 % 0 lf 1004,7 hPa 0,0 l/m 0 min 0 min 0 W/m 8,4 km/h (2 Bft) 97,14 %
04.04.2016 04:08 12,6 C 11,7 C 10,0 C 94 % 1 lf 1004,7 hPa 0,0 l/m 0 min 0 min 0 W/m 8,4 km/h (2 Bft) 93,62 %
04.04.2016 04:10 12,6 C 11,7 C 10,0 C 94 % 1 lf 1004,6 hPa 0,0 l/m 0 min 0 min 0 W/m 8,4 km/h (2 Bft) 95,74 %
04.04.2016 04:12 12,6 C 11,7 C 10,0 C 94 % 1 lf 1004,6 hPa 0,0 l/m 0 min 0 min 0 W/m 8,4 km/h (2 Bft) 95,74 %
04.04.2016 04:14 12,6 C 11,7 C 10,0 C 94 % 1 lf 1004,6 hPa 0,0 l/m 0 min 0 min 0 W/m 8,4 km/h (2 Bft) 97,87 %
04.04.2016 04:16 12,6 C 11,7 C 10,0 C 94 % 1 lf 1004,6 hPa 0,0 l/m 0 min 0 min 0 W/m 12,6 km/h (3 Bft) 95,65 %
04.04.2016 04:18 12,6 C 11,7 C 10,0 C 94 % 1 lf 1004,6 hPa 0,0 l/m 0 min 0 min 0 W/m 8,4 km/h (2 Bft) 95,74 %
04.04.2016 04:20 12,5 C 12,2 C 10,0 C 94 % 0 lf 1004,6 hPa 0,0 l/m 0 min 0 min 0 W/m 14,6 km/h (3 Bft) 96,61 %
04.04.2016 04:22 12,5 C 12,2 C 10,0 C 94 % 0 lf 1004,6 hPa 0,0 l/m 0 min 0 min 0 W/m 10,5 km/h (2 Bft) 93,62 %
04.04.2016 04:24 12,5 C 12,2 C 10,0 C 93 % 0 lf 1004,5 hPa 0,0 l/m 0 min 0 min 0 W/m 10,5 km/h (2 Bft) 94,29 %
04.04.2016 04:26 12,5 C 12,2 C 10,0 C 93 % 0 lf 1004,5 hPa 0,0 l/m 0 min 0 min 0 W/m 16,7 km/h (3 Bft) 94,83 %
04.04.2016 04:28 12,5 C 12,2 C 10,0 C 93 % 0 lf 1004,5 hPa 0,0 l/m 0 min 0 min 0 W/m 20,9 km/h (4 Bft) 95,74 %
04.04.2016 04:30 12,5 C 12,2 C 10,6 C 93 % 0 lf 1004,5 hPa 0,0 l/m 0 min 0 min 0 W/m 16,7 km/h (3 Bft) 91,49 %
04.04.2016 04:32 12,6 C 12,2 C 10,6 C 93 % 0 lf 1004,4 hPa 0,0 l/m 0 min 0 min 0 W/m 23,0 km/h (4 Bft) 95,74 %
04.04.2016 04:34 12,6 C 12,2 C 10,6 C 93 % 0 lf 1004,4 hPa 0,0 l/m 0 min 0 min 0 W/m 18,8 km/h (3 Bft) 95,74 %
04.04.2016 04:36 12,7 C 12,2 C 10,6 C 93 % 0 lf 1004,4 hPa 0,0 l/m 0 min 0 min 0 W/m 14,6 km/h (3 Bft) 100,00 %
04.04.2016 04:38 12,7 C 12,2 C 10,6 C 93 % 0 lf 1004,3 hPa 0,0 l/m 0 min 0 min 0 W/m 20,9 km/h (4 Bft) 91,38 %
04.04.2016 04:40 12,7 C 12,2 C 10,6 C 92 % 0 lf 1004,4 hPa 0,0 l/m 0 min 0 min 0 W/m 23,0 km/h (4 Bft) 95,74 %
04.04.2016 04:42 12,8 C 12,2 C 10,6 C 92 % 0 lf 1004,4 hPa 0,0 l/m 0 min 0 min 0 W/m 20,9 km/h (4 Bft) 95,74 %
04.04.2016 04:44 12,8 C 12,2 C 10,6 C 92 % 0 lf 1004,4 hPa 0,0 l/m 0 min 0 min 0 W/m 20,9 km/h (4 Bft) 85,71 %
04.04.2016 04:46 12,9 C 12,2 C 10,6 C 92 % 0 lf 1004,3 hPa 0,0 l/m 0 min 0 min 0 W/m 25,1 km/h (4 Bft) 96,55 %
04.04.2016 04:48 12,9 C 12,2 C 10,6 C 91 % 0 lf 1004,3 hPa 0,0 l/m 0 min 0 min 0 W/m 20,9 km/h (4 Bft) 93,62 %
04.04.2016 04:50 13,0 C 12,2 C 10,6 C 91 % 0 lf 1004,3 hPa 0,0 l/m 0 min 0 min 0 W/m 20,9 km/h (4 Bft) 95,74 %
04.04.2016 04:52 13,1 C 12,2 C 10,6 C 90 % 0 lf 1004,3 hPa 0,0 l/m 0 min 0 min 0 W/m 18,8 km/h (3 Bft) 93,62 %
04.04.2016 04:54 13,1 C 12,2 C 10,6 C 90 % 0 lf 1004,2 hPa 0,0 l/m 0 min 0 min 0 W/m 16,7 km/h (3 Bft) 95,74 %
04.04.2016 04:56 13,1 C 12,2 C 10,6 C 90 % 0 lf 1004,2 hPa 0,0 l/m 0 min 0 min 0 W/m 25,1 km/h (4 Bft) 94,29 %
04.04.2016 04:58 13,1 C 12,2 C 10,6 C 90 % 0 lf 1004,2 hPa 0,0 l/m 0 min 0 min 0 W/m 18,8 km/h (3 Bft) 91,49 %
04.04.2016 05:00 13,2 C 12,2 C 10,6 C 90 % 0 lf 1004,2 hPa 0,0 l/m 0 min 0 min 0 W/m 18,8 km/h (3 Bft) 94,83 %
04.04.2016 05:02 13,2 C 12,2 C 10,6 C 89 % 0 lf 1004,2 hPa 0,0 l/m 0 min 0 min 0 W/m 18,8 km/h (3 Bft) 91,49 %
04.04.2016 05:04 13,2 C 12,2 C 10,6 C 89 % 0 lf 1004,2 hPa 0,0 l/m 0 min 0 min 0 W/m 20,9 km/h (4 Bft) 97,14 %
04.04.2016 05:06 13,2 C 12,2 C 10,6 C 89 % 0 lf 1004,2 hPa 0,0 l/m 0 min 0 min 0 W/m 25,1 km/h (4 Bft) 98,31 %
04.04.2016 05:08 13,2 C 12,2 C 10,6 C 89 % 0 lf 1004,1 hPa 0,0 l/m 0 min 0 min 0 W/m 20,9 km/h (4 Bft) 95,74 %
04.04.2016 05:10 13,2 C 12,2 C 10,6 C 89 % 0 lf 1004,1 hPa 0,0 l/m 0 min 0 min 0 W/m 18,8 km/h (3 Bft) 97,83 %
04.04.2016 05:12 13,2 C 12,2 C 10,6 C 89 % 0 lf 1004,2 hPa 0,0 l/m 0 min 0 min 0 W/m 18,8 km/h (3 Bft) 97,22 %
04.04.2016 05:14 13,2 C 12,2 C 10,6 C 89 % 0 lf 1004,1 hPa 0,0 l/m 0 min 0 min 0 W/m 14,6 km/h (3 Bft) 96,55 %
04.04.2016 05:16 13,2 C 12,8 C 10,6 C 89 % 0 lf 1004,1 hPa 0,0 l/m 0 min 0 min 0 W/m 20,9 km/h (4 Bft) 95,74 %
04.04.2016 05:18 13,2 C 12,8 C 10,6 C 89 % 0 lf 1004,2 hPa 0,0 l/m 0 min 0 min 0 W/m 20,9 km/h (4 Bft) 91,49 %
04.04.2016 05:20 13,2 C 13,3 C 10,6 C 89 % 0 lf 1004,1 hPa 0,0 l/m 0 min 0 min 0 W/m 18,8 km/h (3 Bft) 95,74 %
04.04.2016 05:22 13,2 C 13,3 C 10,6 C 88 % 0 lf 1004,1 hPa 0,0 l/m 0 min 0 min 0 W/m 16,7 km/h (3 Bft) 97,83 %
04.04.2016 05:24 13,2 C 13,3 C 10,6 C 88 % 0 lf 1004,0 hPa 0,0 l/m 0 min 0 min 0 W/m 18,8 km/h (3 Bft) 97,22 %
04.04.2016 05:26 13,2 C 13,3 C 10,6 C 88 % 0 lf 1004,1 hPa 0,0 l/m 0 min 0 min 0 W/m 20,9 km/h (4 Bft) 93,48 %
04.04.2016 05:28 13,2 C 13,3 C 10,6 C 88 % 0 lf 1004,1 hPa 0,0 l/m 0 min 0 min 0 W/m 16,7 km/h (3 Bft) 98,31 %
04.04.2016 05:30 13,2 C 13,3 C 10,0 C 88 % 0 lf 1004,0 hPa 0,0 l/m 0 min 0 min 0 W/m 12,6 km/h (3 Bft) 95,74 %
04.04.2016 05:32 13,2 C 12,8 C 10,0 C 88 % 0 lf 1004,2 hPa 0,0 l/m 0 min 0 min 0 W/m 14,6 km/h (3 Bft) 94,29 %
04.04.2016 05:34 13,2 C 12,8 C 10,0 C 88 % 0 lf 1004,1 hPa 0,0 l/m 0 min 0 min 0 W/m 12,6 km/h (3 Bft) 89,36 %
04.04.2016 05:36 13,2 C 12,8 C 10,0 C 88 % 0 lf 1004,1 hPa 0,0 l/m 0 min 0 min 0 W/m 14,6 km/h (3 Bft) 91,30 %
04.04.2016 05:38 13,1 C 12,8 C 10,0 C 88 % 0 lf 1004,1 hPa 0,0 l/m 0 min 0 min 0 W/m 10,5 km/h (2 Bft) 95,74 %
04.04.2016 05:40 13,1 C 12,8 C 10,0 C 88 % 0 lf 1004,1 hPa 0,0 l/m 0 min 0 min 0 W/m 12,6 km/h (3 Bft) 94,92 %
04.04.2016 05:42 13,1 C 12,8 C 10,0 C 88 % 0 lf 1004,1 hPa 0,0 l/m 0 min 0 min 0 W/m 16,7 km/h (3 Bft) 91,43 %
04.04.2016 05:44 13,1 C 12,8 C 10,0 C 88 % 0 lf 1004,1 hPa 0,0 l/m 0 min 0 min 0 W/m 12,6 km/h (3 Bft) 93,22 %
04.04.2016 05:46 13,1 C 12,8 C 10,0 C 88 % 0 lf 1004,1 hPa 0,0 l/m 0 min 0 min 0 W/m 14,6 km/h (3 Bft) 91,30 %
04.04.2016 05:48 13,1 C 12,8 C 10,0 C 88 % 0 lf 1004,2 hPa 0,0 l/m 0 min 0 min 0 W/m 8,4 km/h (2 Bft) 93,62 %
04.04.2016 05:50 13,1 C 12,8 C 10,0 C 88 % 0 lf 1004,2 hPa 0,0 l/m 0 min 0 min 0 W/m 8,4 km/h (2 Bft) 95,74 %
04.04.2016 05:52 13,0 C 12,8 C 10,0 C 88 % 0 lf 1004,2 hPa 0,0 l/m 0 min 0 min 0 W/m 10,5 km/h (2 Bft) 93,62 %
04.04.2016 05:54 13,0 C 12,8 C 10,0 C 88 % 0 lf 1004,3 hPa 0,0 l/m 0 min 0 min 0 W/m 10,5 km/h (2 Bft) 94,29 %
04.04.2016 05:56 13,0 C 12,8 C 10,0 C 88 % 0 lf 1004,2 hPa 0,0 l/m 0 min 0 min 0 W/m 12,6 km/h (3 Bft) 95,74 %
04.04.2016 05:58 12,9 C 12,8 C 10,0 C 88 % 0 lf 1004,2 hPa 0,0 l/m 0 min 0 min 0 W/m 14,6 km/h (3 Bft) 93,62 %
04.04.2016 06:00 12,9 C 12,8 C 10,0 C 88 % 0 lf 1004,1 hPa 0,0 l/m 0 min 0 min 0 W/m 16,7 km/h (3 Bft) 93,48 %
04.04.2016 06:02 12,9 C 12,8 C 10,0 C 88 % 0 lf 1004,1 hPa 0,0 l/m 0 min 0 min 0 W/m 10,5 km/h (2 Bft) 98,31 %
04.04.2016 06:04 12,9 C 12,8 C 10,0 C 88 % 0 lf 1004,1 hPa 0,0 l/m 0 min 0 min 0 W/m 12,6 km/h (3 Bft) 97,14 %
04.04.2016 06:06 12,9 C 12,8 C 10,0 C 88 % 0 lf 1004,2 hPa 0,0 l/m 0 min 0 min 0 W/m 10,5 km/h (2 Bft) 97,87 %
04.04.2016 06:08 12,9 C 12,8 C 10,0 C 88 % 0 lf 1004,2 hPa 0,0 l/m 0 min 0 min 0 W/m 10,5 km/h (2 Bft) 93,62 %
04.04.2016 06:10 12,8 C 12,8 C 10,0 C 88 % 0 lf 1004,1 hPa 0,0 l/m 0 min 0 min 0 W/m 10,5 km/h (2 Bft) 95,74 %
04.04.2016 06:12 12,8 C 12,8 C 10,0 C 88 % 0 lf 1004,1 hPa 0,0 l/m 0 min 0 min 0 W/m 8,4 km/h (2 Bft) 91,30 %
04.04.2016 06:14 12,8 C 12,8 C 10,0 C 88 % 0 lf 1004,1 hPa 0,0 l/m 0 min 0 min 0 W/m 12,6 km/h (3 Bft) 97,87 %
04.04.2016 06:16 12,8 C 12,8 C 10,0 C 88 % 0 lf 1004,0 hPa 0,0 l/m 0 min 0 min 0 W/m 14,6 km/h (3 Bft) 95,74 %
04.04.2016 06:18 12,8 C 12,8 C 10,0 C 88 % 0 lf 1004,0 hPa 0,0 l/m 0 min 0 min 0 W/m 12,6 km/h (3 Bft) 97,87 %
04.04.2016 06:20 12,8 C 12,8 C 10,0 C 88 % 0 lf 1004,1 hPa 0,0 l/m 0 min 0 min 0 W/m 12,6 km/h (3 Bft) 100,00 %
04.04.2016 06:22 12,8 C 12,8 C 10,0 C 89 % 0 lf 1004,1 hPa 0,0 l/m 0 min 0 min 0 W/m 12,6 km/h (3 Bft) 100,00 %
04.04.2016 06:24 12,7 C 12,8 C 10,0 C 89 % 0 lf 1004,2 hPa 0,0 l/m 0 min 0 min 0 W/m 10,5 km/h (2 Bft) 100,00 %
04.04.2016 06:26 12,7 C 12,2 C 10,0 C 88 % 0 lf 1004,1 hPa 0,0 l/m 0 min 0 min 0 W/m 8,4 km/h (2 Bft) 97,87 %
04.04.2016 06:28 12,7 C 12,2 C 10,0 C 88 % 0 lf 1004,2 hPa 0,0 l/m 0 min 0 min 0 W/m 10,5 km/h (2 Bft) 95,74 %
04.04.2016 06:30 12,7 C 12,2 C 10,0 C 88 % 0 lf 1004,1 hPa 0,0 l/m 0 min 0 min 0 W/m 10,5 km/h (2 Bft) 100,00 %
04.04.2016 06:32 12,7 C 12,2 C 10,0 C 88 % 0 lf 1004,1 hPa 0,0 l/m 0 min 0 min 0 W/m 12,6 km/h (3 Bft) 100,00 %
04.04.2016 06:34 12,7 C 12,2 C 10,0 C 88 % 0 lf 1004,1 hPa 0,0 l/m 0 min 0 min 0 W/m 10,5 km/h (2 Bft) 100,00 %
04.04.2016 06:36 12,6 C 12,2 C 10,0 C 88 % 0 lf 1004,0 hPa 0,0 l/m 0 min 0 min 0 W/m 8,4 km/h (2 Bft) 100,00 %
04.04.2016 06:38 12,6 C 12,2 C 9,4 C 88 % 0 lf 1004,0 hPa 0,0 l/m 0 min 0 min 0 W/m 6,3 km/h (2 Bft) 97,87 %
04.04.2016 06:40 12,6 C 12,2 C 9,4 C 88 % 0 lf 1004,0 hPa 0,0 l/m 0 min 0 min 0 W/m 6,3 km/h (2 Bft) 97,87 %
04.04.2016 06:42 12,6 C 12,2 C 9,4 C 88 % 0 lf 1004,0 hPa 0,0 l/m 0 min 0 min 0 W/m 6,3 km/h (2 Bft) 95,74 %
04.04.2016 06:44 12,5 C 12,2 C 9,4 C 89 % 0 lf 1004,0 hPa 0,0 l/m 0 min 0 min 0 W/m 8,4 km/h (2 Bft) 97,87 %
04.04.2016 06:46 12,5 C 12,2 C 9,4 C 89 % 0 lf 1004,1 hPa 0,0 l/m 0 min 0 min 0 W/m 8,4 km/h (2 Bft) 95,74 %
04.04.2016 06:48 12,5 C 12,2 C 9,4 C 89 % 0 lf 1004,2 hPa 0,0 l/m 0 min 0 min 0 W/m 8,4 km/h (2 Bft) 97,83 %
04.04.2016 06:50 12,4 C 12,2 C 9,4 C 89 % 0 lf 1004,2 hPa 0,0 l/m 0 min 0 min 0 W/m 8,4 km/h (2 Bft) 97,87 %
04.04.2016 06:52 12,4 C 11,7 C 9,4 C 89 % 0 lf 1004,2 hPa 0,0 l/m 0 min 0 min 0 W/m 8,4 km/h (2 Bft) 97,87 %
04.04.2016 06:54 12,4 C 11,7 C 9,4 C 89 % 0 lf 1004,2 hPa 0,0 l/m 0 min 0 min 0 W/m 6,3 km/h (2 Bft) 97,87 %
04.04.2016 06:56 12,4 C 11,7 C 8,9 C 89 % 0 lf 1004,2 hPa 0,0 l/m 0 min 0 min 0 W/m 6,3 km/h (2 Bft) 97,87 %
04.04.2016 06:58 12,4 C 11,7 C 8,9 C 89 % 0 lf 1004,2 hPa 0,0 l/m 0 min 0 min 5 W/m 6,3 km/h (2 Bft) 97,83 %
04.04.2016 07:00 12,3 C 11,1 C 8,9 C 88 % 0 lf 1004,2 hPa 0,0 l/m 0 min 0 min 5 W/m 6,3 km/h (2 Bft) 97,87 %
04.04.2016 07:02 12,3 C 11,7 C 8,9 C 88 % 0 lf 1004,2 hPa 0,0 l/m 0 min 0 min 5 W/m 6,3 km/h (2 Bft) 93,62 %
04.04.2016 07:04 12,3 C 11,1 C 8,9 C 88 % 0 lf 1004,1 hPa 0,0 l/m 0 min 0 min 7 W/m 6,3 km/h (2 Bft) 97,87 %
04.04.2016 07:06 12,2 C 11,1 C 8,9 C 88 % 0 lf 1004,2 hPa 0,0 l/m 0 min 0 min 7 W/m 6,3 km/h (2 Bft) 95,74 %
04.04.2016 07:08 12,2 C 11,1 C 8,9 C 88 % 0 lf 1004,2 hPa 0,0 l/m 0 min 0 min 9 W/m 4,2 km/h (1 Bft) 93,62 %
04.04.2016 07:10 12,2 C 11,1 C 8,9 C 88 % 0 lf 1004,2 hPa 0,0 l/m 0 min 0 min 10 W/m 6,3 km/h (2 Bft) 97,83 %
04.04.2016 07:12 12,2 C 11,1 C 8,9 C 88 % 0 lf 1004,2 hPa 0,0 l/m 0 min 0 min 11 W/m 6,3 km/h (2 Bft) 93,62 %
04.04.2016 07:14 12,1 C 11,1 C 8,9 C 89 % 0 lf 1004,2 hPa 0,0 l/m 0 min 0 min 11 W/m 10,5 km/h (2 Bft) 97,87 %
04.04.2016 07:16 12,1 C 11,1 C 8,9 C 88 % 1 lf 1004,2 hPa 0,0 l/m 0 min 0 min 12 W/m 10,5 km/h (2 Bft) 95,74 %
04.04.2016 07:18 12,1 C 11,1 C 8,9 C 89 % 0 lf 1004,2 hPa 0,0 l/m 0 min 0 min 12 W/m 6,3 km/h (2 Bft) 93,62 %
04.04.2016 07:20 12,0 C 11,1 C 8,9 C 89 % 0 lf 1004,3 hPa 0,0 l/m 0 min 0 min 14 W/m 10,5 km/h (2 Bft) 95,74 %
04.04.2016 07:22 12,0 C 11,1 C 8,9 C 89 % 0 lf 1004,3 hPa 0,0 l/m 0 min 0 min 17 W/m 8,4 km/h (2 Bft) 95,65 %
04.04.2016 07:24 11,9 C 11,1 C 8,9 C 89 % 0 lf 1004,3 hPa 0,0 l/m 0 min 0 min 19 W/m 8,4 km/h (2 Bft) 93,62 %
04.04.2016 07:26 11,9 C 11,1 C 8,9 C 89 % 1 lf 1004,2 hPa 0,0 l/m 0 min 0 min 20 W/m 6,3 km/h (2 Bft) 91,49 %
04.04.2016 07:28 11,9 C 11,1 C 8,9 C 89 % 1 lf 1004,2 hPa 0,0 l/m 0 min 0 min 24 W/m 8,4 km/h (2 Bft) 97,87 %
04.04.2016 07:30 11,9 C 11,7 C 8,9 C 89 % 1 lf 1004,3 hPa 0,0 l/m 0 min 0 min 27 W/m 8,4 km/h (2 Bft) 95,74 %
04.04.2016 07:32 11,8 C 11,7 C 8,9 C 89 % 1 lf 1004,3 hPa 0,0 l/m 0 min 0 min 30 W/m 8,4 km/h (2 Bft) 91,49 %
04.04.2016 07:34 11,8 C 11,1 C 8,9 C 89 % 1 lf 1004,3 hPa 0,0 l/m 0 min 0 min 32 W/m 8,4 km/h (2 Bft) 95,65 %
04.04.2016 07:36 11,8 C 11,1 C 8,9 C 90 % 0 lf 1004,4 hPa 0,0 l/m 0 min 0 min 33 W/m 8,4 km/h (2 Bft) 91,49 %
04.04.2016 07:38 11,7 C 11,7 C 8,9 C 90 % 0 lf 1004,4 hPa 0,0 l/m 0 min 0 min 38 W/m 8,4 km/h (2 Bft) 93,62 %
04.04.2016 07:40 11,7 C 11,7 C 9,4 C 90 % 0 lf 1004,4 hPa 0,0 l/m 0 min 0 min 39 W/m 10,5 km/h (2 Bft) 95,74 %
04.04.2016 07:42 11,7 C 12,2 C 9,4 C 90 % 0 lf 1004,4 hPa 0,0 l/m 2 min 0 min 52 W/m 10,5 km/h (2 Bft) 91,49 %
04.04.2016 07:44 11,7 C 12,2 C 9,4 C 90 % 0 lf 1004,4 hPa 0,0 l/m 2 min 0 min 69 W/m 8,4 km/h (2 Bft) 95,74 %
04.04.2016 07:46 11,7 C 12,2 C 10,0 C 90 % 0 lf 1004,4 hPa 0,0 l/m 2 min 0 min 72 W/m 8,4 km/h (2 Bft) 97,83 %
04.04.2016 07:48 11,7 C 12,2 C 10,0 C 91 % 0 lf 1004,4 hPa 0,0 l/m 2 min 0 min 70 W/m 14,6 km/h (3 Bft) 97,87 %
04.04.2016 07:50 11,7 C 12,2 C 10,0 C 91 % 0 lf 1004,5 hPa 0,0 l/m 2 min 0 min 68 W/m 10,5 km/h (2 Bft) 97,87 %
04.04.2016 07:52 11,7 C 12,2 C 10,0 C 91 % 0 lf 1004,5 hPa 0,0 l/m 2 min 0 min 65 W/m 8,4 km/h (2 Bft) 97,87 %
04.04.2016 07:54 11,7 C 12,2 C 10,0 C 91 % 0 lf 1004,5 hPa 0,0 l/m 2 min 0 min 71 W/m 8,4 km/h (2 Bft) 97,87 %
04.04.2016 07:56 11,7 C 12,2 C 10,0 C 91 % 0 lf 1004,5 hPa 0,0 l/m 0 min 0 min 46 W/m 6,3 km/h (2 Bft) 100,00 %
04.04.2016 07:58 11,8 C 12,2 C 10,0 C 91 % 0 lf 1004,6 hPa 0,0 l/m 0 min 0 min 39 W/m 12,6 km/h (3 Bft) 97,83 %
04.04.2016 08:00 11,8 C 12,2 C 10,0 C 92 % 0 lf 1004,6 hPa 0,0 l/m 0 min 0 min 37 W/m 12,6 km/h (3 Bft) 97,87 %
04.04.2016 08:02 11,8 C 12,2 C 10,0 C 92 % 0 lf 1004,6 hPa 0,0 l/m 0 min 0 min 35 W/m 12,6 km/h (3 Bft) 100,00 %
04.04.2016 08:04 11,8 C 12,2 C 10,0 C 92 % 0 lf 1004,5 hPa 0,0 l/m 0 min 0 min 35 W/m 14,6 km/h (3 Bft) 100,00 %
04.04.2016 08:06 11,9 C 12,8 C 10,0 C 92 % 0 lf 1004,6 hPa 0,0 l/m 0 min 0 min 35 W/m 12,6 km/h (3 Bft) 95,74 %
04.04.2016 08:08 11,9 C 12,8 C 10,0 C 92 % 0 lf 1004,6 hPa 0,0 l/m 0 min 0 min 36 W/m 10,5 km/h (2 Bft) 95,65 %
04.04.2016 08:10 11,9 C 12,8 C 10,6 C 92 % 0 lf 1004,5 hPa 0,0 l/m 0 min 0 min 45 W/m 12,6 km/h (3 Bft) 97,87 %
04.04.2016 08:12 11,9 C 12,8 C 10,6 C 92 % 0 lf 1004,5 hPa 0,0 l/m 0 min 0 min 60 W/m 12,6 km/h (3 Bft) 100,00 %
04.04.2016 08:14 12,0 C 12,8 C 10,6 C 92 % 0 lf 1004,5 hPa 0,0 l/m 0 min 0 min 73 W/m 10,5 km/h (2 Bft) 97,87 %
04.04.2016 08:16 12,0 C 13,3 C 11,1 C 92 % 0 lf 1004,5 hPa 0,0 l/m 0 min 0 min 91 W/m 8,4 km/h (2 Bft) 100,00 %
04.04.2016 08:18 12,0 C 13,3 C 11,1 C 92 % 0 lf 1004,5 hPa 0,0 l/m 2 min 0 min 129 W/m 8,4 km/h (2 Bft) 97,87 %
04.04.2016 08:20 12,1 C 13,9 C 11,7 C 92 % 0 lf 1004,5 hPa 0,0 l/m 2 min 0 min 149 W/m 6,3 km/h (2 Bft) 97,87 %
04.04.2016 08:22 12,1 C 13,9 C 11,7 C 92 % 0 lf 1004,5 hPa 0,0 l/m 2 min 0 min 210 W/m 10,5 km/h (2 Bft) 97,83 %
04.04.2016 08:24 12,1 C 13,9 C 11,7 C 92 % 0 lf 1004,4 hPa 0,0 l/m 2 min 0 min 217 W/m 8,4 km/h (2 Bft) 94,55 %
04.04.2016 08:26 12,2 C 13,9 C 11,7 C 92 % 0 lf 1004,5 hPa 0,0 l/m 2 min 0 min 151 W/m 4,2 km/h (1 Bft) 91,49 %
04.04.2016 08:28 12,2 C 13,9 C 11,7 C 92 % 0 lf 1004,6 hPa 0,0 l/m 0 min 0 min 71 W/m 12,6 km/h (3 Bft) 95,74 %
04.04.2016 08:30 12,3 C 13,9 C 11,7 C 92 % 0 lf 1004,6 hPa 0,0 l/m 0 min 0 min 64 W/m 12,6 km/h (3 Bft) 93,62 %
04.04.2016 08:32 12,3 C 13,9 C 11,7 C 92 % 0 lf 1004,5 hPa 0,0 l/m 0 min 0 min 73 W/m 12,6 km/h (3 Bft) 91,30 %
04.04.2016 08:34 12,4 C 13,9 C 11,7 C 92 % 0 lf 1004,5 hPa 0,0 l/m 0 min 0 min 86 W/m 12,6 km/h (3 Bft) 93,62 %
04.04.2016 08:36 12,4 C 13,9 C 12,2 C 92 % 0 lf 1004,5 hPa 0,0 l/m 0 min 0 min 99 W/m 10,5 km/h (2 Bft) 95,74 %
04.04.2016 08:38 12,4 C 13,9 C 12,2 C 92 % 0 lf 1004,5 hPa 0,0 l/m 0 min 0 min 99 W/m 12,6 km/h (3 Bft) 93,62 %
04.04.2016 08:40 12,5 C 13,9 C 12,2 C 92 % 0 lf 1004,5 hPa 0,0 l/m 0 min 0 min 113 W/m 14,6 km/h (3 Bft) 95,74 %
04.04.2016 08:42 12,6 C 14,4 C 12,2 C 92 % 0 lf 1004,5 hPa 0,0 l/m 2 min 0 min 140 W/m 10,5 km/h (2 Bft) 93,62 %
04.04.2016 08:44 12,6 C 14,4 C 12,8 C 92 % 0 lf 1004,5 hPa 0,0 l/m 2 min 0 min 165 W/m 10,5 km/h (2 Bft) 93,48 %
04.04.2016 08:46 12,7 C 14,4 C 12,8 C 92 % 0 lf 1004,5 hPa 0,0 l/m 2 min 0 min 178 W/m 8,4 km/h (2 Bft) 93,62 %
04.04.2016 08:48 12,8 C 15,0 C 12,8 C 92 % 0 lf 1004,5 hPa 0,0 l/m 2 min 0 min 173 W/m 10,5 km/h (2 Bft) 95,74 %
04.04.2016 08:50 12,8 C 14,4 C 12,8 C 92 % 0 lf 1004,6 hPa 0,0 l/m 2 min 0 min 136 W/m 10,5 km/h (2 Bft) 93,62 %
04.04.2016 08:52 12,9 C 14,4 C 12,8 C 92 % 0 lf 1004,6 hPa 0,0 l/m 0 min 0 min 94 W/m 10,5 km/h (2 Bft) 93,62 %
04.04.2016 08:54 12,9 C 14,4 C 12,8 C 92 % 0 lf 1004,5 hPa 0,0 l/m 0 min 0 min 74 W/m 6,3 km/h (2 Bft) 95,74 %
04.04.2016 08:56 13,0 C 14,4 C 12,8 C 92 % 0 lf 1004,6 hPa 0,0 l/m 0 min 0 min 73 W/m 10,5 km/h (2 Bft) 93,48 %
04.04.2016 08:58 13,1 C 14,4 C 12,8 C 91 % 0 lf 1004,5 hPa 0,0 l/m 0 min 0 min 82 W/m 8,4 km/h (2 Bft) 93,62 %
04.04.2016 09:00 13,1 C 14,4 C 12,8 C 91 % 0 lf 1004,5 hPa 0,0 l/m 0 min 0 min 110 W/m 10,5 km/h (2 Bft) 91,49 %
04.04.2016 09:02 13,1 C 15,0 C 12,8 C 91 % 0 lf 1004,5 hPa 0,0 l/m 0 min 0 min 143 W/m 6,3 km/h (2 Bft) 91,49 %
04.04.2016 09:04 13,2 C 15,0 C 13,3 C 91 % 0 lf 1004,5 hPa 0,0 l/m 2 min 0 min 171 W/m 8,4 km/h (2 Bft) 95,74 %
04.04.2016 09:06 13,2 C 15,6 C 13,3 C 91 % 0 lf 1004,6 hPa 0,0 l/m 2 min 0 min 156 W/m 8,4 km/h (2 Bft) 95,65 %
04.04.2016 09:08 13,3 C 15,0 C 13,3 C 91 % 0 lf 1004,5 hPa 0,0 l/m 0 min 0 min 128 W/m 6,3 km/h (2 Bft) 91,49 %
04.04.2016 09:10 13,3 C 15,0 C 13,3 C 91 % 0 lf 1004,6 hPa 0,0 l/m 0 min 0 min 120 W/m 8,4 km/h (2 Bft) 93,62 %
04.04.2016 09:12 13,4 C 15,0 C 13,3 C 91 % 0 lf 1004,6 hPa 0,0 l/m 0 min 0 min 115 W/m 8,4 km/h (2 Bft) 95,74 %
04.04.2016 09:14 13,4 C 15,0 C 13,3 C 91 % 0 lf 1004,6 hPa 0,0 l/m 0 min 0 min 115 W/m 10,5 km/h (2 Bft) 95,83 %
04.04.2016 09:16 13,5 C 15,6 C 13,3 C 91 % 0 lf 1004,5 hPa 0,0 l/m 0 min 0 min 142 W/m 8,4 km/h (2 Bft) 97,87 %
04.04.2016 09:18 13,5 C 15,6 C 13,3 C 90 % 0 lf 1004,6 hPa 0,0 l/m 0 min 0 min 169 W/m 6,3 km/h (2 Bft) 89,13 %
04.04.2016 09:20 13,6 C 16,1 C 13,3 C 90 % 0 lf 1004,5 hPa 0,0 l/m 2 min 0 min 179 W/m 14,6 km/h (3 Bft) 95,74 %
04.04.2016 09:22 13,7 C 17,2 C 13,3 C 90 % 0 lf 1004,5 hPa 0,0 l/m 0 min 0 min 142 W/m 10,5 km/h (2 Bft) 93,62 %
04.04.2016 09:24 13,7 C 18,9 C 13,3 C 90 % 0 lf 1004,5 hPa 0,0 l/m 2 min 0 min 233 W/m 8,4 km/h (2 Bft) 97,87 %
04.04.2016 09:26 13,8 C 19,4 C 13,9 C 90 % 0 lf 1004,5 hPa 0,0 l/m 2 min 0 min 348 W/m 8,4 km/h (2 Bft) 91,49 %
04.04.2016 09:28 13,9 C 20,0 C 13,9 C 89 % 0 lf 1004,4 hPa 0,0 l/m 2 min 0 min 354 W/m 12,6 km/h (3 Bft) 95,74 %
04.04.2016 09:30 14,1 C 20,0 C 13,9 C 89 % 0 lf 1004,5 hPa 0,0 l/m 2 min 0 min 358 W/m 10,5 km/h (2 Bft) 97,83 %
04.04.2016 09:32 14,2 C 21,1 C 14,4 C 89 % 0 lf 1004,5 hPa 0,0 l/m 2 min 0 min 376 W/m 12,6 km/h (3 Bft) 97,87 %
04.04.2016 09:34 14,3 C 20,0 C 14,4 C 88 % 0 lf 1004,6 hPa 0,0 l/m 2 min 0 min 409 W/m 14,6 km/h (3 Bft) 91,49 %
04.04.2016 09:36 14,5 C 18,3 C 15,0 C 87 % 0 lf 1004,6 hPa 0,0 l/m 2 min 0 min 410 W/m 16,7 km/h (3 Bft) 95,74 %
04.04.2016 09:38 14,7 C 16,7 C 14,4 C 86 % 0 lf 1004,6 hPa 0,0 l/m 0 min 0 min 125 W/m 14,6 km/h (3 Bft) 95,74 %
04.04.2016 09:40 14,8 C 16,1 C 14,4 C 84 % 0 lf 1004,6 hPa 0,0 l/m 0 min 0 min 114 W/m 16,7 km/h (3 Bft) 97,87 %
04.04.2016 09:42 14,9 C 16,1 C 13,9 C 84 % 0 lf 1004,6 hPa 0,0 l/m 0 min 0 min 137 W/m 10,5 km/h (2 Bft) 97,83 %
04.04.2016 09:44 15,0 C 16,7 C 14,4 C 83 % 0 lf 1004,6 hPa 0,0 l/m 0 min 0 min 184 W/m 12,6 km/h (3 Bft) 95,74 %
04.04.2016 09:46 15,1 C 16,7 C 15,0 C 83 % 0 lf 1004,6 hPa 0,0 l/m 2 min 0 min 233 W/m 10,5 km/h (2 Bft) 93,62 %
04.04.2016 09:48 15,1 C 18,3 C 15,6 C 83 % 0 lf 1004,6 hPa 0,0 l/m 2 min 0 min 323 W/m 8,4 km/h (2 Bft) 91,49 %
04.04.2016 09:50 15,2 C 17,8 C 15,6 C 83 % 0 lf 1004,6 hPa 0,0 l/m 2 min 0 min 336 W/m 10,5 km/h (2 Bft) 95,74 %
04.04.2016 09:52 15,3 C 17,8 C 15,6 C 83 % 0 lf 1004,6 hPa 0,0 l/m 0 min 0 min 196 W/m 12,6 km/h (3 Bft) 95,65 %
04.04.2016 09:54 15,3 C 16,7 C 15,0 C 83 % 0 lf 1004,6 hPa 0,0 l/m 0 min 0 min 117 W/m 14,6 km/h (3 Bft) 97,87 %
04.04.2016 09:56 15,3 C 16,7 C 15,0 C 82 % 0 lf 1004,6 hPa 0,0 l/m 0 min 0 min 91 W/m 14,6 km/h (3 Bft) 97,87 %
04.04.2016 09:58 15,4 C 16,1 C 14,4 C 82 % 0 lf 1004,7 hPa 0,0 l/m 0 min 0 min 79 W/m 25,1 km/h (4 Bft) 97,87 %
04.04.2016 10:00 15,4 C 16,1 C 14,4 C 81 % 0 lf 1004,7 hPa 0,0 l/m 0 min 0 min 80 W/m 25,1 km/h (4 Bft) 97,87 %
04.04.2016 10:02 15,4 C 16,1 C 13,9 C 80 % 0 lf 1004,7 hPa 0,0 l/m 0 min 0 min 91 W/m 20,9 km/h (4 Bft) 97,87 %
04.04.2016 10:04 15,4 C 16,1 C 13,9 C 80 % 0 lf 1004,7 hPa 0,0 l/m 0 min 0 min 103 W/m 18,8 km/h (3 Bft) 95,65 %
04.04.2016 10:06 15,4 C 16,1 C 13,9 C 80 % 0 lf 1004,7 hPa 0,0 l/m 0 min 0 min 112 W/m 12,6 km/h (3 Bft) 95,74 %
04.04.2016 10:08 15,4 C 16,1 C 13,9 C 80 % 0 lf 1004,8 hPa 0,0 l/m 0 min 0 min 113 W/m 14,6 km/h (3 Bft) 95,74 %
04.04.2016 10:10 15,5 C 16,1 C 13,9 C 80 % 0 lf 1004,8 hPa 0,0 l/m 0 min 0 min 99 W/m 20,9 km/h (4 Bft) 97,87 %
04.04.2016 10:12 15,4 C 16,1 C 13,9 C 80 % 0 lf 1004,8 hPa 0,0 l/m 0 min 0 min 84 W/m 20,9 km/h (4 Bft) 97,87 %
04.04.2016 10:14 15,4 C 16,1 C 13,9 C 80 % 0 lf 1004,9 hPa 0,0 l/m 0 min 0 min 70 W/m 12,6 km/h (3 Bft) 93,62 %
04.04.2016 10:16 15,4 C 16,1 C 13,9 C 80 % 0 lf 1004,9 hPa 0,0 l/m 0 min 0 min 58 W/m 14,6 km/h (3 Bft) 95,65 %
04.04.2016 10:18 15,4 C 15,6 C 13,9 C 80 % 0 lf 1005,0 hPa 0,0 l/m 0 min 0 min 54 W/m 33,5 km/h (5 Bft) 95,74 %
04.04.2016 10:20 15,4 C 15,6 C 13,9 C 80 % 0 lf 1005,1 hPa 0,0 l/m 0 min 0 min 56 W/m 29,3 km/h (5 Bft) 97,87 %
04.04.2016 10:22 15,4 C 15,6 C 13,9 C 79 % 0 lf 1005,1 hPa 0,0 l/m 0 min 0 min 60 W/m 29,3 km/h (5 Bft) 97,87 %
04.04.2016 10:24 15,4 C 15,6 C 13,3 C 79 % 0 lf 1005,1 hPa 0,0 l/m 0 min 0 min 64 W/m 29,3 km/h (5 Bft) 97,87 %
04.04.2016 10:26 15,3 C 15,6 C 13,3 C 78 % 0 lf 1005,1 hPa 0,0 l/m 0 min 0 min 60 W/m 25,1 km/h (4 Bft) 95,74 %
04.04.2016 10:28 15,3 C 15,6 C 13,3 C 78 % 0 lf 1005,2 hPa 0,0 l/m 0 min 0 min 58 W/m 18,8 km/h (3 Bft) 97,83 %
04.04.2016 10:30 15,3 C 15,6 C 13,3 C 79 % 0 lf 1005,1 hPa 0,0 l/m 0 min 0 min 66 W/m 27,2 km/h (4 Bft) 95,74 %
04.04.2016 10:32 15,3 C 15,6 C 13,9 C 78 % 0 lf 1005,2 hPa 0,0 l/m 0 min 0 min 96 W/m 29,3 km/h (5 Bft) 97,87 %
04.04.2016 10:34 15,3 C 16,1 C 13,9 C 78 % 0 lf 1005,2 hPa 0,0 l/m 0 min 0 min 127 W/m 29,3 km/h (5 Bft) 95,74 %
04.04.2016 10:36 15,2 C 16,1 C 13,9 C 78 % 0 lf 1005,2 hPa 0,0 l/m 0 min 0 min 142 W/m 29,3 km/h (5 Bft) 95,74 %
04.04.2016 10:38 15,2 C 16,1 C 13,9 C 78 % 0 lf 1005,2 hPa 0,0 l/m 0 min 0 min 159 W/m 25,1 km/h (4 Bft) 95,74 %
04.04.2016 10:40 15,2 C 16,1 C 14,4 C 78 % 0 lf 1005,2 hPa 0,0 l/m 0 min 0 min 176 W/m 18,8 km/h (3 Bft) 97,83 %
04.04.2016 10:42 15,2 C 16,1 C 14,4 C 78 % 0 lf 1005,2 hPa 0,0 l/m 0 min 0 min 190 W/m 23,0 km/h (4 Bft) 100,00 %
04.04.2016 10:44 15,3 C 16,1 C 14,4 C 78 % 0 lf 1005,3 hPa 0,0 l/m 0 min 0 min 197 W/m 25,1 km/h (4 Bft) 100,00 %
04.04.2016 10:46 15,3 C 16,7 C 14,4 C 79 % 0 lf 1005,3 hPa 0,0 l/m 0 min 0 min 168 W/m 20,9 km/h (4 Bft) 97,87 %
04.04.2016 10:48 15,3 C 16,1 C 14,4 C 79 % 0 lf 1005,1 hPa 0,0 l/m 0 min 0 min 141 W/m 20,9 km/h (4 Bft) 100,00 %
04.04.2016 10:50 15,3 C 16,1 C 13,9 C 78 % 0 lf 1005,2 hPa 0,0 l/m 0 min 0 min 144 W/m 27,2 km/h (4 Bft) 97,87 %
04.04.2016 10:52 15,3 C 16,1 C 14,4 C 78 % 0 lf 1005,2 hPa 0,0 l/m 0 min 0 min 131 W/m 23,0 km/h (4 Bft) 100,00 %
04.04.2016 10:54 15,3 C 16,1 C 13,9 C 78 % 0 lf 1005,3 hPa 0,0 l/m 0 min 0 min 102 W/m 14,6 km/h (3 Bft) 95,74 %
04.04.2016 10:56 15,3 C 15,6 C 13,9 C 78 % 0 lf 1005,4 hPa 0,0 l/m 0 min 0 min 71 W/m 25,1 km/h (4 Bft) 95,74 %
04.04.2016 10:58 15,4 C 15,6 C 13,9 C 78 % 0 lf 1005,3 hPa 0,0 l/m 0 min 0 min 63 W/m 20,9 km/h (4 Bft) 97,87 %
04.04.2016 11:00 15,3 C 15,6 C 13,9 C 78 % 0 lf 1005,4 hPa 0,0 l/m 0 min 0 min 64 W/m 16,7 km/h (3 Bft) 95,74 %
04.04.2016 11:02 15,3 C 15,6 C 13,9 C 78 % 0 lf 1005,4 hPa 0,0 l/m 0 min 0 min 87 W/m 23,0 km/h (4 Bft) 100,00 %
04.04.2016 11:04 15,3 C 15,6 C 13,9 C 78 % 0 lf 1005,4 hPa 0,0 l/m 0 min 0 min 79 W/m 18,8 km/h (3 Bft) 100,00 %
04.04.2016 11:06 15,3 C 15,6 C 13,9 C 78 % 0 lf 1005,3 hPa 0,0 l/m 0 min 0 min 60 W/m 14,6 km/h (3 Bft) 97,87 %
04.04.2016 11:08 15,3 C 15,6 C 13,9 C 78 % 0 lf 1005,3 hPa 0,0 l/m 0 min 0 min 52 W/m 18,8 km/h (3 Bft) 100,00 %
04.04.2016 11:10 15,3 C 15,6 C 13,3 C 78 % 0 lf 1005,4 hPa 0,0 l/m 0 min 0 min 43 W/m 18,8 km/h (3 Bft) 97,87 %
04.04.2016 11:12 15,3 C 15,6 C 13,3 C 78 % 0 lf 1005,4 hPa 0,0 l/m 0 min 0 min 44 W/m 27,2 km/h (4 Bft) 95,74 %
04.04.2016 11:14 15,2 C 15,6 C 13,3 C 78 % 0 lf 1005,4 hPa 0,0 l/m 0 min 0 min 51 W/m 23,0 km/h (4 Bft) 100,00 %
04.04.2016 11:16 15,2 C 15,6 C 13,3 C 78 % 0 lf 1005,5 hPa 0,0 l/m 0 min 0 min 57 W/m 18,8 km/h (3 Bft) 91,49 %
04.04.2016 11:18 15,2 C 15,6 C 13,3 C 78 % 0 lf 1005,5 hPa 0,0 l/m 0 min 0 min 57 W/m 20,9 km/h (4 Bft) 95,74 %
04.04.2016 11:20 15,2 C 15,6 C 13,3 C 78 % 0 lf 1005,5 hPa 0,0 l/m 0 min 0 min 59 W/m 16,7 km/h (3 Bft) 95,74 %
04.04.2016 11:22 15,2 C 15,6 C 13,3 C 78 % 0 lf 1005,6 hPa 0,0 l/m 0 min 0 min 62 W/m 12,6 km/h (3 Bft) 95,74 %
04.04.2016 11:24 15,2 C 15,6 C 13,3 C 78 % 0 lf 1005,7 hPa 0,0 l/m 0 min 0 min 49 W/m 23,0 km/h (4 Bft) 93,62 %
04.04.2016 11:26 15,1 C 15,0 C 13,3 C 78 % 0 lf 1006,0 hPa 0,0 l/m 0 min 0 min 25 W/m 35,6 km/h (5 Bft) 97,83 %
04.04.2016 11:28 14,9 C 13,3 C 12,2 C 77 % 15 lf 1006,0 hPa 0,0 l/m 0 min 2 min 16 W/m 46,0 km/h (6 Bft) 95,74 %
04.04.2016 11:30 14,7 C 12,8 C 11,7 C 77 % 15 lf 1006,1 hPa 0,0 l/m 0 min 2 min 21 W/m 31,4 km/h (5 Bft) 93,62 %
04.04.2016 11:32 14,3 C 12,8 C 11,1 C 78 % 15 lf 1006,1 hPa 0,0 l/m 0 min 2 min 27 W/m 35,6 km/h (5 Bft) 95,74 %
04.04.2016 11:34 14,2 C 12,8 C 11,1 C 79 % 11 lf 1006,1 hPa 0,0 l/m 0 min 0 min 32 W/m 39,7 km/h (6 Bft) 91,49 %
04.04.2016 11:36 13,9 C 12,8 C 11,1 C 79 % 13 lf 1006,2 hPa 0,0 l/m 0 min 2 min 35 W/m 29,3 km/h (5 Bft) 95,74 %
04.04.2016 11:38 13,7 C 12,8 C 11,1 C 80 % 4 lf 1006,2 hPa 0,0 l/m 0 min 2 min 51 W/m 25,1 km/h (4 Bft) 93,48 %
04.04.2016 11:40 13,6 C 12,8 C 11,1 C 81 % 0 lf 1006,2 hPa 0,0 l/m 0 min 0 min 53 W/m 29,3 km/h (5 Bft) 95,74 %
04.04.2016 11:42 13,5 C 12,8 C 11,1 C 81 % 0 lf 1006,2 hPa 0,0 l/m 0 min 0 min 55 W/m 27,2 km/h (4 Bft) 91,49 %
04.04.2016 11:44 13,4 C 12,8 C 11,7 C 82 % 0 lf 1006,3 hPa 0,0 l/m 0 min 0 min 66 W/m 27,2 km/h (4 Bft) 95,74 %
04.04.2016 11:46 13,3 C 13,3 C 11,7 C 82 % 0 lf 1006,3 hPa 0,0 l/m 0 min 0 min 84 W/m 20,9 km/h (4 Bft) 95,74 %
04.04.2016 11:48 13,3 C 13,3 C 11,7 C 83 % 0 lf 1006,3 hPa 0,0 l/m 0 min 0 min 89 W/m 23,0 km/h (4 Bft) 95,74 %
04.04.2016 11:50 13,2 C 13,3 C 11,7 C 83 % 0 lf 1006,3 hPa 0,0 l/m 0 min 0 min 87 W/m 23,0 km/h (4 Bft) 93,48 %
04.04.2016 11:52 13,2 C 13,3 C 11,7 C 83 % 0 lf 1006,4 hPa 0,0 l/m 0 min 0 min 89 W/m 33,5 km/h (5 Bft) 97,87 %
04.04.2016 11:54 13,1 C 13,3 C 11,7 C 83 % 0 lf 1006,3 hPa 0,0 l/m 0 min 0 min 105 W/m 35,6 km/h (5 Bft) 97,87 %
04.04.2016 11:56 13,1 C 13,9 C 11,7 C 83 % 0 lf 1006,3 hPa 0,0 l/m 0 min 0 min 137 W/m 25,1 km/h (4 Bft) 95,74 %
04.04.2016 11:58 13,1 C 13,9 C 12,2 C 83 % 0 lf 1006,2 hPa 0,0 l/m 0 min 0 min 158 W/m 18,8 km/h (3 Bft) 93,62 %
04.04.2016 12:00 13,1 C 14,4 C 12,2 C 84 % 0 lf 1006,3 hPa 0,0 l/m 0 min 0 min 146 W/m 23,0 km/h (4 Bft) 95,74 %
04.04.2016 12:02 13,1 C 14,4 C 12,2 C 84 % 0 lf 1006,3 hPa 0,0 l/m 0 min 0 min 130 W/m 23,0 km/h (4 Bft) 97,83 %
04.04.2016 12:04 13,1 C 14,4 C 12,2 C 84 % 0 lf 1006,3 hPa 0,0 l/m 0 min 0 min 148 W/m 23,0 km/h (4 Bft) 97,87 %
04.04.2016 12:06 13,2 C 14,4 C 12,8 C 84 % 0 lf 1006,3 hPa 0,0 l/m 0 min 0 min 185 W/m 31,4 km/h (5 Bft) 97,87 %
04.04.2016 12:08 13,2 C 14,4 C 12,8 C 84 % 0 lf 1006,2 hPa 0,0 l/m 0 min 0 min 192 W/m 23,0 km/h (4 Bft) 95,74 %
04.04.2016 12:10 13,2 C 14,4 C 12,8 C 84 % 0 lf 1006,3 hPa 0,0 l/m 0 min 0 min 156 W/m 35,6 km/h (5 Bft) 97,87 %
04.04.2016 12:12 13,2 C 13,9 C 12,2 C 83 % 0 lf 1006,3 hPa 0,0 l/m 0 min 0 min 105 W/m 35,6 km/h (5 Bft) 97,87 %
04.04.2016 12:14 13,2 C 13,9 C 12,2 C 83 % 0 lf 1006,4 hPa 0,0 l/m 0 min 0 min 69 W/m 41,8 km/h (6 Bft) 93,48 %
04.04.2016 12:16 13,2 C 13,9 C 12,2 C 83 % 0 lf 1006,4 hPa 0,0 l/m 0 min 0 min 60 W/m 33,5 km/h (5 Bft) 91,49 %
04.04.2016 12:18 13,2 C 13,9 C 12,2 C 83 % 0 lf 1006,4 hPa 0,0 l/m 0 min 0 min 57 W/m 18,8 km/h (3 Bft) 95,74 %
04.04.2016 12:20 13,2 C 13,9 C 12,2 C 83 % 0 lf 1006,4 hPa 0,0 l/m 0 min 0 min 67 W/m 23,0 km/h (4 Bft) 95,74 %
04.04.2016 12:22 13,2 C 13,9 C 12,2 C 83 % 0 lf 1006,4 hPa 0,0 l/m 0 min 0 min 88 W/m 16,7 km/h (3 Bft) 97,87 %
04.04.2016 12:24 13,2 C 13,9 C 12,2 C 84 % 0 lf 1006,4 hPa 0,0 l/m 0 min 0 min 88 W/m 12,6 km/h (3 Bft) 97,83 %
04.04.2016 12:26 13,3 C 13,9 C 12,2 C 84 % 0 lf 1006,4 hPa 0,0 l/m 0 min 0 min 101 W/m 12,6 km/h (3 Bft) 95,74 %
04.04.2016 12:28 13,3 C 14,4 C 12,2 C 84 % 0 lf 1006,4 hPa 0,0 l/m 0 min 0 min 156 W/m 16,7 km/h (3 Bft) 97,87 %
04.04.2016 12:30 13,3 C 15,0 C 12,8 C 84 % 0 lf 1006,3 hPa 0,0 l/m 0 min 0 min 192 W/m 25,1 km/h (4 Bft) 91,49 %
04.04.2016 12:32 13,4 C 15,0 C 12,8 C 84 % 0 lf 1006,4 hPa 0,0 l/m 0 min 0 min 232 W/m 33,5 km/h (5 Bft) 97,87 %
04.04.2016 12:34 13,4 C 15,0 C 12,8 C 84 % 0 lf 1006,4 hPa 0,0 l/m 0 min 0 min 149 W/m 29,3 km/h (5 Bft) 97,87 %
04.04.2016 12:36 13,4 C 15,0 C 12,8 C 84 % 0 lf 1006,5 hPa 0,0 l/m 0 min 0 min 104 W/m 27,2 km/h (4 Bft) 95,74 %
04.04.2016 12:38 13,4 C 15,0 C 12,8 C 84 % 0 lf 1006,5 hPa 0,0 l/m 0 min 0 min 128 W/m 35,6 km/h (5 Bft) 95,65 %
04.04.2016 12:40 13,5 C 15,0 C 12,8 C 84 % 0 lf 1006,5 hPa 0,0 l/m 0 min 0 min 241 W/m 33,5 km/h (5 Bft) 93,62 %
04.04.2016 12:42 13,5 C 15,6 C 13,3 C 84 % 0 lf 1006,5 hPa 0,0 l/m 2 min 0 min 375 W/m 33,5 km/h (5 Bft) 97,37 %
04.04.2016 12:44 13,6 C 16,1 C 13,3 C 84 % 0 lf 1006,5 hPa 0,0 l/m 2 min 0 min 348 W/m 29,3 km/h (5 Bft) 98,31 %
04.04.2016 12:46 13,6 C 16,7 C 13,9 C 83 % 0 lf 1006,4 hPa 0,0 l/m 2 min 0 min 365 W/m 20,9 km/h (4 Bft) 94,29 %
04.04.2016 12:48 13,7 C 17,2 C 14,4 C 83 % 0 lf 1006,3 hPa 0,0 l/m 2 min 0 min 427 W/m 23,0 km/h (4 Bft) 95,74 %
04.04.2016 12:50 13,7 C 18,3 C 14,4 C 83 % 0 lf 1006,1 hPa 0,0 l/m 2 min 0 min 458 W/m 20,9 km/h (4 Bft) 91,38 %
04.04.2016 12:52 13,8 C 20,0 C 16,1 C 83 % 0 lf 1006,1 hPa 0,0 l/m 2 min 0 min 473 W/m 16,7 km/h (3 Bft) 95,74 %
04.04.2016 12:54 14,1 C 23,3 C 18,3 C 84 % 0 lf 1006,1 hPa 0,0 l/m 2 min 0 min 685 W/m 16,7 km/h (3 Bft) 97,14 %
04.04.2016 12:56 14,2 C 25,6 C 18,9 C 84 % 0 lf 1006,2 hPa 0,0 l/m 2 min 0 min 970 W/m 20,9 km/h (4 Bft) 93,62 %
04.04.2016 12:58 14,4 C 23,9 C 18,9 C 84 % 0 lf 1006,3 hPa 0,0 l/m 2 min 0 min 848 W/m 18,8 km/h (3 Bft) 91,49 %
04.04.2016 13:00 14,6 C 21,1 C 17,2 C 83 % 0 lf 1006,3 hPa 0,0 l/m 2 min 0 min 465 W/m 23,0 km/h (4 Bft) 89,66 %
04.04.2016 13:02 14,7 C 20,0 C 16,1 C 81 % 0 lf 1006,2 hPa 0,0 l/m 2 min 0 min 383 W/m 27,2 km/h (4 Bft) 94,29 %
04.04.2016 13:04 14,8 C 18,9 C 15,0 C 81 % 0 lf 1006,2 hPa 0,0 l/m 2 min 0 min 363 W/m 27,2 km/h (4 Bft) 95,74 %
04.04.2016 13:06 14,8 C 18,3 C 14,4 C 80 % 0 lf 1006,2 hPa 0,0 l/m 2 min 0 min 383 W/m 31,4 km/h (5 Bft) 96,61 %
04.04.2016 13:08 14,7 C 17,2 C 14,4 C 79 % 0 lf 1006,2 hPa 0,0 l/m 0 min 0 min 338 W/m 33,5 km/h (5 Bft) 94,29 %
04.04.2016 13:10 14,7 C 17,2 C 13,9 C 79 % 0 lf 1006,3 hPa 0,0 l/m 0 min 0 min 332 W/m 31,4 km/h (5 Bft) 97,87 %
04.04.2016 13:12 14,7 C 17,2 C 13,9 C 79 % 0 lf 1006,2 hPa 0,0 l/m 2 min 0 min 347 W/m 27,2 km/h (4 Bft) 94,83 %
04.04.2016 13:14 14,7 C 18,3 C 14,4 C 79 % 0 lf 1006,2 hPa 0,0 l/m 2 min 0 min 496 W/m 27,2 km/h (4 Bft) 88,57 %
04.04.2016 13:16 14,7 C 18,3 C 15,0 C 80 % 0 lf 1006,2 hPa 0,0 l/m 2 min 0 min 533 W/m 29,3 km/h (5 Bft) 98,31 %
04.04.2016 13:18 14,7 C 19,4 C 15,0 C 80 % 0 lf 1006,2 hPa 0,0 l/m 2 min 0 min 539 W/m 23,0 km/h (4 Bft) 97,14 %
04.04.2016 13:20 14,8 C 19,4 C 15,0 C 80 % 0 lf 1006,2 hPa 0,0 l/m 2 min 0 min 503 W/m 43,9 km/h (6 Bft) 91,49 %
04.04.2016 13:22 14,8 C 18,3 C 15,0 C 79 % 0 lf 1006,2 hPa 0,0 l/m 2 min 0 min 503 W/m 35,6 km/h (5 Bft) 93,62 %
04.04.2016 13:24 14,8 C 17,2 C 14,4 C 79 % 0 lf 1006,3 hPa 0,0 l/m 0 min 0 min 328 W/m 31,4 km/h (5 Bft) 95,65 %
04.04.2016 13:26 14,8 C 17,2 C 14,4 C 79 % 0 lf 1006,3 hPa 0,0 l/m 2 min 0 min 375 W/m 23,0 km/h (4 Bft) 92,00 %
04.04.2016 13:28 14,7 C 16,7 C 14,4 C 78 % 0 lf 1006,3 hPa 0,0 l/m 2 min 0 min 373 W/m 35,6 km/h (5 Bft) 93,62 %
04.04.2016 13:30 14,7 C 18,3 C 15,0 C 78 % 0 lf 1006,3 hPa 0,0 l/m 2 min 0 min 408 W/m 37,7 km/h (5 Bft) 97,87 %
04.04.2016 13:32 14,7 C 18,9 C 15,0 C 79 % 0 lf 1006,4 hPa 0,0 l/m 2 min 0 min 432 W/m 31,4 km/h (5 Bft) 95,74 %
04.04.2016 13:34 14,8 C 18,3 C 15,0 C 79 % 0 lf 1006,4 hPa 0,0 l/m 2 min 0 min 500 W/m 39,7 km/h (6 Bft) 96,55 %
04.04.2016 13:36 14,7 C 17,2 C 14,4 C 78 % 0 lf 1006,4 hPa 0,0 l/m 0 min 0 min 321 W/m 46,0 km/h (6 Bft) 95,74 %
04.04.2016 13:38 14,7 C 16,7 C 13,9 C 78 % 0 lf 1006,5 hPa 0,0 l/m 0 min 0 min 330 W/m 39,7 km/h (6 Bft) 88,57 %
04.04.2016 13:40 14,6 C 16,1 C 13,9 C 78 % 0 lf 1006,5 hPa 0,0 l/m 0 min 0 min 290 W/m 35,6 km/h (5 Bft) 94,92 %
04.04.2016 13:42 14,4 C 15,6 C 13,3 C 78 % 0 lf 1006,7 hPa 0,0 l/m 0 min 0 min 218 W/m 33,5 km/h (5 Bft) 94,29 %
04.04.2016 13:44 14,4 C 15,0 C 13,3 C 78 % 0 lf 1006,8 hPa 0,0 l/m 0 min 0 min 182 W/m 25,1 km/h (4 Bft) 96,55 %
04.04.2016 13:46 14,2 C 14,4 C 12,8 C 78 % 0 lf 1006,7 hPa 0,0 l/m 0 min 0 min 148 W/m 37,7 km/h (5 Bft) 97,14 %
04.04.2016 13:48 14,2 C 14,4 C 12,8 C 78 % 0 lf 1006,8 hPa 0,0 l/m 0 min 0 min 135 W/m 33,5 km/h (5 Bft) 94,92 %
04.04.2016 13:50 14,1 C 14,4 C 12,8 C 78 % 0 lf 1006,8 hPa 0,0 l/m 0 min 0 min 188 W/m 31,4 km/h (5 Bft) 97,87 %
04.04.2016 13:52 14,1 C 15,0 C 13,3 C 79 % 0 lf 1006,8 hPa 0,0 l/m 0 min 0 min 237 W/m 20,9 km/h (4 Bft) 95,74 %
04.04.2016 13:54 14,0 C 15,6 C 13,3 C 79 % 0 lf 1006,9 hPa 0,0 l/m 0 min 0 min 327 W/m 27,2 km/h (4 Bft) 97,87 %
04.04.2016 13:56 14,0 C 16,7 C 13,9 C 79 % 0 lf 1006,9 hPa 0,0 l/m 2 min 0 min 431 W/m 23,0 km/h (4 Bft) 100,00 %
04.04.2016 13:58 14,1 C 17,2 C 14,4 C 79 % 0 lf 1006,9 hPa 0,0 l/m 2 min 0 min 487 W/m 23,0 km/h (4 Bft) 96,55 %
04.04.2016 14:00 14,1 C 17,8 C 15,0 C 79 % 0 lf 1006,7 hPa 0,0 l/m 2 min 0 min 509 W/m 20,9 km/h (4 Bft) 100,00 %
04.04.2016 14:02 14,2 C 18,3 C 15,0 C 79 % 0 lf 1006,6 hPa 0,0 l/m 2 min 0 min 538 W/m 23,0 km/h (4 Bft) 98,31 %
04.04.2016 14:04 14,2 C 18,3 C 15,0 C 79 % 0 lf 1006,6 hPa 0,0 l/m 2 min 0 min 559 W/m 27,2 km/h (4 Bft) 97,87 %
04.04.2016 14:06 14,2 C 18,9 C 15,6 C 79 % 0 lf 1006,7 hPa 0,0 l/m 2 min 0 min 565 W/m 27,2 km/h (4 Bft) 91,30 %
04.04.2016 14:08 14,3 C 20,0 C 15,6 C 79 % 0 lf 1006,5 hPa 0,0 l/m 2 min 0 min 575 W/m 20,9 km/h (4 Bft) 97,22 %
04.04.2016 14:10 14,5 C 20,0 C 16,1 C 79 % 0 lf 1006,5 hPa 0,0 l/m 2 min 0 min 571 W/m 18,8 km/h (3 Bft) 97,83 %
04.04.2016 14:12 14,6 C 19,4 C 16,1 C 78 % 0 lf 1006,5 hPa 0,0 l/m 2 min 0 min 593 W/m 23,0 km/h (4 Bft) 97,87 %
04.04.2016 14:14 14,7 C 18,9 C 15,6 C 78 % 0 lf 1006,5 hPa 0,0 l/m 2 min 0 min 517 W/m 25,1 km/h (4 Bft) 97,87 %
04.04.2016 14:16 14,8 C 19,4 C 16,1 C 77 % 0 lf 1006,5 hPa 0,0 l/m 2 min 0 min 519 W/m 20,9 km/h (4 Bft) 97,87 %
04.04.2016 14:18 14,9 C 19,4 C 16,1 C 76 % 0 lf 1006,5 hPa 0,0 l/m 2 min 0 min 477 W/m 18,8 km/h (3 Bft) 97,87 %
04.04.2016 14:20 15,0 C 19,4 C 15,6 C 75 % 0 lf 1006,5 hPa 0,0 l/m 2 min 0 min 448 W/m 18,8 km/h (3 Bft) 94,83 %
04.04.2016 14:22 15,1 C 18,3 C 15,6 C 73 % 0 lf 1006,4 hPa 0,0 l/m 2 min 0 min 425 W/m 29,3 km/h (5 Bft) 97,87 %
04.04.2016 14:24 15,1 C 17,8 C 15,0 C 72 % 0 lf 1006,4 hPa 0,0 l/m 2 min 0 min 426 W/m 29,3 km/h (5 Bft) 94,29 %
04.04.2016 14:26 15,1 C 18,3 C 15,6 C 72 % 0 lf 1006,4 hPa 0,0 l/m 2 min 0 min 452 W/m 18,8 km/h (3 Bft) 95,74 %
04.04.2016 14:28 15,2 C 19,4 C 15,6 C 73 % 0 lf 1006,4 hPa 0,0 l/m 2 min 0 min 509 W/m 23,0 km/h (4 Bft) 95,74 %
04.04.2016 14:30 15,3 C 19,4 C 16,1 C 73 % 0 lf 1006,4 hPa 0,0 l/m 2 min 0 min 563 W/m 33,5 km/h (5 Bft) 97,87 %
04.04.2016 14:32 15,4 C 19,4 C 16,1 C 71 % 0 lf 1006,4 hPa 0,0 l/m 2 min 0 min 537 W/m 27,2 km/h (4 Bft) 97,87 %
04.04.2016 14:34 15,4 C 21,7 C 16,1 C 71 % 0 lf 1006,5 hPa 0,0 l/m 2 min 0 min 603 W/m 12,6 km/h (3 Bft) 92,86 %
04.04.2016 14:36 15,6 C 21,1 C 16,7 C 71 % 0 lf 1006,5 hPa 0,0 l/m 2 min 0 min 565 W/m 31,4 km/h (5 Bft) 97,87 %
04.04.2016 14:38 15,7 C 20,0 C 16,1 C 69 % 0 lf 1006,4 hPa 0,0 l/m 2 min 0 min 472 W/m 29,3 km/h (5 Bft) 97,87 %
04.04.2016 14:40 15,7 C 20,6 C 15,6 C 68 % 0 lf 1006,5 hPa 0,0 l/m 2 min 0 min 487 W/m 35,6 km/h (5 Bft) 95,74 %
04.04.2016 14:42 15,8 C 22,2 C 15,6 C 68 % 0 lf 1006,5 hPa 0,0 l/m 2 min 0 min 735 W/m 35,6 km/h (5 Bft) 95,74 %
04.04.2016 14:44 15,9 C 23,9 C 15,6 C 69 % 0 lf 1006,5 hPa 0,0 l/m 2 min 0 min 809 W/m 23,0 km/h (4 Bft) 97,83 %
04.04.2016 14:46 16,1 C 24,4 C 15,6 C 69 % 0 lf 1006,4 hPa 0,0 l/m 2 min 0 min 782 W/m 20,9 km/h (4 Bft) 97,87 %
04.04.2016 14:48 16,3 C 23,3 C 16,1 C 69 % 0 lf 1006,5 hPa 0,0 l/m 2 min 0 min 766 W/m 31,4 km/h (5 Bft) 97,87 %
04.04.2016 14:50 16,3 C 22,2 C 15,6 C 66 % 0 lf 1006,4 hPa 0,0 l/m 2 min 0 min 761 W/m 31,4 km/h (5 Bft) 95,74 %
04.04.2016 14:52 16,4 C 21,1 C 15,0 C 65 % 0 lf 1006,4 hPa 0,0 l/m 0 min 0 min 278 W/m 33,5 km/h (5 Bft) 95,74 %
04.04.2016 14:54 16,4 C 21,7 C 15,6 C 65 % 0 lf 1006,4 hPa 0,0 l/m 2 min 0 min 546 W/m 33,5 km/h (5 Bft) 100,00 %
04.04.2016 14:56 16,5 C 22,8 C 15,6 C 66 % 0 lf 1006,4 hPa 0,0 l/m 2 min 0 min 788 W/m 33,5 km/h (5 Bft) 100,00 %
04.04.2016 14:58 16,6 C 20,6 C 15,0 C 65 % 0 lf 1006,4 hPa 0,0 l/m 2 min 0 min 795 W/m 27,2 km/h (4 Bft) 97,87 %
04.04.2016 15:00 16,6 C 21,7 C 15,0 C 64 % 0 lf 1006,5 hPa 0,0 l/m 2 min 0 min 769 W/m 27,2 km/h (4 Bft) 100,00 %
04.04.2016 15:02 16,6 C 22,8 C 15,6 C 64 % 0 lf 1006,5 hPa 0,0 l/m 2 min 0 min 730 W/m 20,9 km/h (4 Bft) 95,74 %
04.04.2016 15:04 16,6 C 22,8 C 15,6 C 64 % 0 lf 1006,3 hPa 0,0 l/m 2 min 0 min 738 W/m 23,0 km/h (4 Bft) 100,00 %
04.04.2016 15:06 16,7 C 22,8 C 15,6 C 64 % 0 lf 1006,4 hPa 0,0 l/m 2 min 0 min 741 W/m 25,1 km/h (4 Bft) 97,87 %
04.04.2016 15:08 16,7 C 23,3 C 15,6 C 63 % 0 lf 1006,4 hPa 0,0 l/m 2 min 0 min 732 W/m 20,9 km/h (4 Bft) 100,00 %
04.04.2016 15:10 16,8 C 23,3 C 16,1 C 63 % 0 lf 1006,3 hPa 0,0 l/m 2 min 0 min 734 W/m 33,5 km/h (5 Bft) 100,00 %
04.04.2016 15:12 16,9 C 23,9 C 15,6 C 62 % 0 lf 1006,4 hPa 0,0 l/m 2 min 0 min 735 W/m 27,2 km/h (4 Bft) 97,87 %
04.04.2016 15:14 16,9 C 21,1 C 15,0 C 61 % 0 lf 1006,4 hPa 0,0 l/m 2 min 0 min 735 W/m 27,2 km/h (4 Bft) 97,87 %
04.04.2016 15:16 16,9 C 20,6 C 15,0 C 62 % 0 lf 1006,4 hPa 0,0 l/m 0 min 0 min 231 W/m 20,9 km/h (4 Bft) 97,87 %
04.04.2016 15:18 16,8 C 22,2 C 15,0 C 62 % 0 lf 1006,4 hPa 0,0 l/m 2 min 0 min 321 W/m 16,7 km/h (3 Bft) 97,87 %
04.04.2016 15:20 16,9 C 22,8 C 15,0 C 62 % 0 lf 1006,3 hPa 0,0 l/m 2 min 0 min 756 W/m 14,6 km/h (3 Bft) 95,65 %
04.04.2016 15:22 16,9 C 24,4 C 15,6 C 63 % 0 lf 1006,3 hPa 0,0 l/m 2 min 0 min 735 W/m 27,2 km/h (4 Bft) 97,87 %
04.04.2016 15:24 16,9 C 22,2 C 15,6 C 61 % 0 lf 1006,3 hPa 0,0 l/m 2 min 0 min 752 W/m 33,5 km/h (5 Bft) 95,74 %
04.04.2016 15:26 16,9 C 20,0 C 15,0 C 60 % 0 lf 1006,4 hPa 0,0 l/m 2 min 0 min 773 W/m 25,1 km/h (4 Bft) 97,87 %
04.04.2016 15:28 16,8 C 18,9 C 15,0 C 60 % 0 lf 1006,3 hPa 0,0 l/m 0 min 0 min 194 W/m 20,9 km/h (4 Bft) 97,87 %
04.04.2016 15:30 16,8 C 22,2 C 15,0 C 61 % 0 lf 1006,3 hPa 0,0 l/m 2 min 0 min 317 W/m 14,6 km/h (3 Bft) 95,65 %
04.04.2016 15:32 16,8 C 23,9 C 16,1 C 61 % 0 lf 1006,3 hPa 0,0 l/m 2 min 0 min 812 W/m 20,9 km/h (4 Bft) 93,62 %
04.04.2016 15:34 16,9 C 24,4 C 16,1 C 62 % 0 lf 1006,3 hPa 0,0 l/m 2 min 0 min 770 W/m 20,9 km/h (4 Bft) 95,74 %
04.04.2016 15:36 17,1 C 23,9 C 16,7 C 62 % 0 lf 1006,3 hPa 0,0 l/m 2 min 0 min 732 W/m 20,9 km/h (4 Bft) 97,87 %
04.04.2016 15:38 17,2 C 23,9 C 16,1 C 61 % 0 lf 1006,2 hPa 0,0 l/m 2 min 0 min 737 W/m 16,7 km/h (3 Bft) 97,87 %
04.04.2016 15:40 17,2 C 22,8 C 16,1 C 61 % 0 lf 1006,2 hPa 0,0 l/m 2 min 0 min 483 W/m 14,6 km/h (3 Bft) 95,74 %
04.04.2016 15:42 17,3 C 21,7 C 15,6 C 61 % 0 lf 1006,2 hPa 0,0 l/m 0 min 0 min 242 W/m 20,9 km/h (4 Bft) 95,74 %
04.04.2016 15:44 17,2 C 21,1 C 15,6 C 60 % 0 lf 1006,3 hPa 0,0 l/m 0 min 0 min 246 W/m 23,0 km/h (4 Bft) 91,30 %
04.04.2016 15:46 17,2 C 20,6 C 15,0 C 60 % 0 lf 1006,2 hPa 0,0 l/m 0 min 0 min 228 W/m 25,1 km/h (4 Bft) 95,74 %
04.04.2016 15:48 17,1 C 20,6 C 15,0 C 60 % 0 lf 1006,3 hPa 0,0 l/m 0 min 0 min 211 W/m 23,0 km/h (4 Bft) 93,62 %
04.04.2016 15:50 17,1 C 22,2 C 15,6 C 61 % 0 lf 1006,2 hPa 0,0 l/m 2 min 0 min 646 W/m 18,8 km/h (3 Bft) 95,74 %
04.04.2016 15:52 17,2 C 23,9 C 16,1 C 60 % 0 lf 1006,1 hPa 0,0 l/m 2 min 0 min 743 W/m 25,1 km/h (4 Bft) 95,74 %
04.04.2016 15:54 17,2 C 25,6 C 16,7 C 61 % 0 lf 1006,2 hPa 0,0 l/m 2 min 0 min 772 W/m 20,9 km/h (4 Bft) 93,48 %
04.04.2016 15:56 17,3 C 26,1 C 16,7 C 60 % 0 lf 1006,2 hPa 0,0 l/m 2 min 0 min 722 W/m 20,9 km/h (4 Bft) 95,74 %
04.04.2016 15:58 17,4 C 22,8 C 16,7 C 59 % 0 lf 1006,2 hPa 0,0 l/m 2 min 0 min 525 W/m 23,0 km/h (4 Bft) 93,62 %
04.04.2016 16:00 17,4 C 20,6 C 15,6 C 58 % 0 lf 1006,1 hPa 0,0 l/m 2 min 0 min 469 W/m 29,3 km/h (5 Bft) 91,49 %
04.04.2016 16:02 17,4 C 20,0 C 15,0 C 59 % 0 lf 1006,1 hPa 0,0 l/m 2 min 0 min 406 W/m 23,0 km/h (4 Bft) 95,74 %
04.04.2016 16:04 17,4 C 22,2 C 15,0 C 59 % 0 lf 1006,1 hPa 0,0 l/m 2 min 0 min 397 W/m 20,9 km/h (4 Bft) 91,49 %
04.04.2016 16:06 17,4 C 22,2 C 15,6 C 58 % 0 lf 1006,2 hPa 0,0 l/m 2 min 0 min 506 W/m 18,8 km/h (3 Bft) 91,30 %
04.04.2016 16:08 17,4 C 23,9 C 15,6 C 60 % 0 lf 1006,1 hPa 0,0 l/m 2 min 0 min 719 W/m 18,8 km/h (3 Bft) 95,74 %
04.04.2016 16:10 17,5 C 26,1 C 16,1 C 61 % 0 lf 1006,0 hPa 0,0 l/m 2 min 0 min 730 W/m 12,6 km/h (3 Bft) 93,62 %
04.04.2016 16:12 17,6 C 26,1 C 16,7 C 60 % 0 lf 1006,0 hPa 0,0 l/m 2 min 0 min 719 W/m 14,6 km/h (3 Bft) 91,49 %
04.04.2016 16:14 17,7 C 25,0 C 16,1 C 60 % 0 lf 1006,1 hPa 0,0 l/m 2 min 0 min 705 W/m 18,8 km/h (3 Bft) 95,74 %
04.04.2016 16:16 17,7 C 22,8 C 15,6 C 58 % 0 lf 1006,1 hPa 0,0 l/m 2 min 0 min 422 W/m 20,9 km/h (4 Bft) 93,62 %
04.04.2016 16:18 17,7 C 23,3 C 15,6 C 58 % 0 lf 1006,1 hPa 0,0 l/m 2 min 0 min 347 W/m 14,6 km/h (3 Bft) 95,65 %
04.04.2016 16:20 17,7 C 23,3 C 16,1 C 57 % 0 lf 1006,1 hPa 0,0 l/m 2 min 0 min 644 W/m 27,2 km/h (4 Bft) 95,74 %
04.04.2016 16:22 17,7 C 23,3 C 16,1 C 57 % 0 lf 1006,1 hPa 0,0 l/m 2 min 0 min 647 W/m 18,8 km/h (3 Bft) 95,74 %
04.04.2016 16:24 17,7 C 22,8 C 16,7 C 57 % 0 lf 1006,1 hPa 0,0 l/m 2 min 0 min 641 W/m 18,8 km/h (3 Bft) 95,74 %
04.04.2016 16:26 17,7 C 23,9 C 16,7 C 57 % 0 lf 1006,1 hPa 0,0 l/m 2 min 0 min 639 W/m 12,6 km/h (3 Bft) 97,87 %
04.04.2016 16:28 17,8 C 23,3 C 16,1 C 57 % 0 lf 1006,1 hPa 0,0 l/m 2 min 0 min 638 W/m 12,6 km/h (3 Bft) 95,74 %
04.04.2016 16:30 17,8 C 24,4 C 16,1 C 59 % 0 lf 1006,1 hPa 0,0 l/m 2 min 0 min 637 W/m 14,6 km/h (3 Bft) 97,83 %
04.04.2016 16:32 17,9 C 25,6 C 16,7 C 59 % 0 lf 1006,0 hPa 0,0 l/m 2 min 0 min 627 W/m 18,8 km/h (3 Bft) 97,87 %
04.04.2016 16:34 17,9 C 23,9 C 16,7 C 58 % 0 lf 1006,0 hPa 0,0 l/m 2 min 0 min 643 W/m 18,8 km/h (3 Bft) 100,00 %
04.04.2016 16:36 18,0 C 23,3 C 16,1 C 58 % 0 lf 1006,0 hPa 0,0 l/m 2 min 0 min 395 W/m 25,1 km/h (4 Bft) 93,62 %
04.04.2016 16:38 17,9 C 21,1 C 16,1 C 58 % 0 lf 1005,8 hPa 0,0 l/m 2 min 0 min 300 W/m 23,0 km/h (4 Bft) 97,87 %
04.04.2016 16:40 17,9 C 22,2 C 16,1 C 58 % 0 lf 1005,8 hPa 0,0 l/m 2 min 0 min 377 W/m 16,7 km/h (3 Bft) 91,49 %
04.04.2016 16:42 17,9 C 21,7 C 16,1 C 58 % 0 lf 1005,9 hPa 0,0 l/m 2 min 0 min 504 W/m 16,7 km/h (3 Bft) 91,30 %
04.04.2016 16:44 17,9 C 22,8 C 16,1 C 59 % 0 lf 1005,8 hPa 0,0 l/m 2 min 0 min 303 W/m 12,6 km/h (3 Bft) 95,74 %
04.04.2016 16:46 17,9 C 23,9 C 16,7 C 59 % 0 lf 1005,8 hPa 0,0 l/m 2 min 0 min 636 W/m 18,8 km/h (3 Bft) 95,74 %
04.04.2016 16:48 17,9 C 21,7 C 16,1 C 57 % 0 lf 1005,8 hPa 0,0 l/m 2 min 0 min 392 W/m 27,2 km/h (4 Bft) 93,62 %
04.04.2016 16:50 17,9 C 21,1 C 16,1 C 57 % 0 lf 1005,7 hPa 0,0 l/m 0 min 0 min 223 W/m 23,0 km/h (4 Bft) 93,62 %
04.04.2016 16:52 17,8 C 20,0 C 16,1 C 57 % 0 lf 1005,7 hPa 0,0 l/m 0 min 0 min 221 W/m 25,1 km/h (4 Bft) 93,48 %
04.04.2016 16:54 17,8 C 19,4 C 15,6 C 57 % 0 lf 1005,7 hPa 0,0 l/m 0 min 0 min 229 W/m 18,8 km/h (3 Bft) 95,74 %
04.04.2016 16:56 17,7 C 20,6 C 15,6 C 57 % 0 lf 1005,7 hPa 0,0 l/m 2 min 0 min 261 W/m 23,0 km/h (4 Bft) 93,62 %
04.04.2016 16:58 17,7 C 22,2 C 16,1 C 56 % 0 lf 1005,8 hPa 0,0 l/m 2 min 0 min 519 W/m 20,9 km/h (4 Bft) 97,87 %
04.04.2016 17:00 17,7 C 22,8 C 16,1 C 57 % 0 lf 1005,7 hPa 0,0 l/m 2 min 0 min 556 W/m 14,6 km/h (3 Bft) 97,87 %
04.04.2016 17:02 17,7 C 22,8 C 16,1 C 57 % 0 lf 1005,7 hPa 0,0 l/m 2 min 0 min 603 W/m 25,1 km/h (4 Bft) 97,87 %
04.04.2016 17:04 17,7 C 20,0 C 16,1 C 56 % 0 lf 1005,7 hPa 0,0 l/m 2 min 0 min 513 W/m 25,1 km/h (4 Bft) 95,65 %
04.04.2016 17:06 17,7 C 18,9 C 15,6 C 56 % 0 lf 1005,7 hPa 0,0 l/m 0 min 0 min 185 W/m 29,3 km/h (5 Bft) 97,87 %
04.04.2016 17:08 17,6 C 18,9 C 15,6 C 57 % 0 lf 1005,7 hPa 0,0 l/m 0 min 0 min 173 W/m 18,8 km/h (3 Bft) 95,74 %
04.04.2016 17:10 17,6 C 18,9 C 15,6 C 57 % 0 lf 1005,7 hPa 0,0 l/m 0 min 0 min 185 W/m 14,6 km/h (3 Bft) 95,74 %
04.04.2016 17:12 17,4 C 18,3 C 15,0 C 56 % 0 lf 1005,7 hPa 0,0 l/m 0 min 0 min 198 W/m 20,9 km/h (4 Bft) 95,74 %
04.04.2016 17:14 17,4 C 18,3 C 15,0 C 56 % 0 lf 1005,7 hPa 0,0 l/m 0 min 0 min 199 W/m 14,6 km/h (3 Bft) 97,87 %
04.04.2016 17:16 17,3 C 18,3 C 15,0 C 57 % 0 lf 1005,7 hPa 0,0 l/m 0 min 0 min 191 W/m 16,7 km/h (3 Bft) 97,83 %
04.04.2016 17:18 17,3 C 18,3 C 15,0 C 57 % 0 lf 1005,7 hPa 0,0 l/m 0 min 0 min 174 W/m 18,8 km/h (3 Bft) 97,87 %
04.04.2016 17:20 17,2 C 19,4 C 15,0 C 58 % 0 lf 1005,8 hPa 0,0 l/m 2 min 0 min 323 W/m 20,9 km/h (4 Bft) 97,87 %
04.04.2016 17:22 17,2 C 21,7 C 15,6 C 57 % 0 lf 1005,7 hPa 0,0 l/m 2 min 0 min 470 W/m 18,8 km/h (3 Bft) 97,87 %
04.04.2016 17:24 17,2 C 23,3 C 16,1 C 58 % 0 lf 1005,6 hPa 0,0 l/m 2 min 0 min 530 W/m 14,6 km/h (3 Bft) 100,00 %
04.04.2016 17:26 17,3 C 21,7 C 16,1 C 57 % 0 lf 1005,6 hPa 0,0 l/m 2 min 0 min 483 W/m 31,4 km/h (5 Bft) 100,00 %
04.04.2016 17:28 17,3 C 19,4 C 15,6 C 56 % 0 lf 1005,7 hPa 0,0 l/m 0 min 0 min 156 W/m 31,4 km/h (5 Bft) 100,00 %
04.04.2016 17:30 17,2 C 18,9 C 15,0 C 56 % 0 lf 1005,6 hPa 0,0 l/m 0 min 0 min 148 W/m 18,8 km/h (3 Bft) 95,74 %
04.04.2016 17:32 17,2 C 18,3 C 15,0 C 56 % 0 lf 1005,6 hPa 0,0 l/m 0 min 0 min 151 W/m 23,0 km/h (4 Bft) 97,87 %
04.04.2016 17:34 17,2 C 20,6 C 15,0 C 57 % 0 lf 1005,6 hPa 0,0 l/m 2 min 0 min 274 W/m 20,9 km/h (4 Bft) 100,00 %
04.04.2016 17:36 17,2 C 21,7 C 15,6 C 58 % 0 lf 1005,6 hPa 0,0 l/m 2 min 0 min 469 W/m 14,6 km/h (3 Bft) 100,00 %
04.04.2016 17:38 17,2 C 22,2 C 15,6 C 58 % 0 lf 1005,6 hPa 0,0 l/m 2 min 0 min 442 W/m 20,9 km/h (4 Bft) 100,00 %
04.04.2016 17:40 17,3 C 22,8 C 15,6 C 58 % 0 lf 1005,6 hPa 0,0 l/m 2 min 0 min 432 W/m 16,7 km/h (3 Bft) 97,83 %
04.04.2016 17:42 17,3 C 21,7 C 15,6 C 56 % 0 lf 1005,6 hPa 0,0 l/m 2 min 0 min 394 W/m 18,8 km/h (3 Bft) 100,00 %
04.04.2016 17:44 17,4 C 20,6 C 15,6 C 57 % 0 lf 1005,6 hPa 0,0 l/m 2 min 0 min 324 W/m 18,8 km/h (3 Bft) 100,00 %
04.04.2016 17:46 17,4 C 19,4 C 15,0 C 56 % 0 lf 1005,6 hPa 0,0 l/m 0 min 0 min 115 W/m 23,0 km/h (4 Bft) 100,00 %
04.04.2016 17:48 17,3 C 20,0 C 15,0 C 56 % 0 lf 1005,6 hPa 0,0 l/m 2 min 0 min 203 W/m 23,0 km/h (4 Bft) 95,74 %
04.04.2016 17:50 17,4 C 21,1 C 15,0 C 56 % 0 lf 1005,6 hPa 0,0 l/m 2 min 0 min 327 W/m 14,6 km/h (3 Bft) 97,87 %
04.04.2016 17:52 17,3 C 21,1 C 15,0 C 57 % 0 lf 1005,6 hPa 0,0 l/m 2 min 0 min 322 W/m 16,7 km/h (3 Bft) 97,83 %
04.04.2016 17:54 17,3 C 21,1 C 15,0 C 57 % 0 lf 1005,6 hPa 0,0 l/m 2 min 0 min 246 W/m 14,6 km/h (3 Bft) 100,00 %
04.04.2016 17:56 17,4 C 21,1 C 15,0 C 56 % 0 lf 1005,5 hPa 0,0 l/m 2 min 0 min 303 W/m 16,7 km/h (3 Bft) 100,00 %
04.04.2016 17:58 17,4 C 21,1 C 15,0 C 56 % 0 lf 1005,5 hPa 0,0 l/m 2 min 0 min 336 W/m 18,8 km/h (3 Bft) 100,00 %
04.04.2016 18:00 17,4 C 21,1 C 15,0 C 56 % 0 lf 1005,6 hPa 0,0 l/m 2 min 0 min 324 W/m 16,7 km/h (3 Bft) 97,87 %
04.04.2016 18:02 17,4 C 20,6 C 15,0 C 56 % 0 lf 1005,5 hPa 0,0 l/m 2 min 0 min 317 W/m 18,8 km/h (3 Bft) 97,87 %
04.04.2016 18:04 17,4 C 20,6 C 15,0 C 56 % 0 lf 1005,5 hPa 0,0 l/m 2 min 0 min 282 W/m 20,9 km/h (4 Bft) 97,87 %
04.04.2016 18:06 17,4 C 21,1 C 15,0 C 56 % 0 lf 1005,5 hPa 0,0 l/m 2 min 0 min 288 W/m 18,8 km/h (3 Bft) 97,87 %
04.04.2016 18:08 17,4 C 21,1 C 15,0 C 56 % 0 lf 1005,5 hPa 0,0 l/m 2 min 0 min 278 W/m 16,7 km/h (3 Bft) 95,74 %
04.04.2016 18:10 17,4 C 21,1 C 14,4 C 57 % 0 lf 1005,4 hPa 0,0 l/m 2 min 0 min 277 W/m 14,6 km/h (3 Bft) 97,87 %
04.04.2016 18:12 17,4 C 21,1 C 15,0 C 57 % 0 lf 1005,4 hPa 0,0 l/m 2 min 0 min 269 W/m 18,8 km/h (3 Bft) 97,87 %
04.04.2016 18:14 17,4 C 20,6 C 14,4 C 57 % 0 lf 1005,4 hPa 0,0 l/m 2 min 0 min 261 W/m 14,6 km/h (3 Bft) 97,83 %
04.04.2016 18:16 17,4 C 20,0 C 14,4 C 56 % 0 lf 1005,4 hPa 0,0 l/m 2 min 0 min 246 W/m 18,8 km/h (3 Bft) 95,74 %
04.04.2016 18:18 17,4 C 18,9 C 14,4 C 57 % 0 lf 1005,4 hPa 0,0 l/m 0 min 0 min 104 W/m 18,8 km/h (3 Bft) 93,62 %
04.04.2016 18:20 17,4 C 18,9 C 14,4 C 56 % 0 lf 1005,4 hPa 0,0 l/m 2 min 0 min 180 W/m 14,6 km/h (3 Bft) 95,74 %
04.04.2016 18:22 17,3 C 18,9 C 14,4 C 56 % 0 lf 1005,4 hPa 0,0 l/m 2 min 0 min 233 W/m 12,6 km/h (3 Bft) 87,23 %
04.04.2016 18:24 17,3 C 18,9 C 14,4 C 57 % 0 lf 1005,3 hPa 0,0 l/m 2 min 0 min 226 W/m 14,6 km/h (3 Bft) 95,74 %
04.04.2016 18:26 17,3 C 18,3 C 14,4 C 57 % 0 lf 1005,3 hPa 0,0 l/m 2 min 0 min 193 W/m 10,5 km/h (2 Bft) 93,48 %
04.04.2016 18:28 17,3 C 18,3 C 14,4 C 57 % 0 lf 1005,3 hPa 0,0 l/m 2 min 0 min 199 W/m 12,6 km/h (3 Bft) 95,74 %
04.04.2016 18:30 17,3 C 18,3 C 14,4 C 56 % 0 lf 1005,2 hPa 0,0 l/m 2 min 0 min 208 W/m 16,7 km/h (3 Bft) 93,62 %
04.04.2016 18:32 17,2 C 18,3 C 14,4 C 56 % 0 lf 1005,2 hPa 0,0 l/m 2 min 0 min 201 W/m 14,6 km/h (3 Bft) 95,74 %
04.04.2016 18:34 17,2 C 17,8 C 14,4 C 56 % 0 lf 1005,2 hPa 0,0 l/m 2 min 0 min 195 W/m 12,6 km/h (3 Bft) 95,74 %
04.04.2016 18:36 17,2 C 17,8 C 13,9 C 56 % 0 lf 1005,2 hPa 0,0 l/m 2 min 0 min 175 W/m 12,6 km/h (3 Bft) 93,62 %
04.04.2016 18:38 17,2 C 17,2 C 13,9 C 56 % 0 lf 1005,2 hPa 0,0 l/m 2 min 0 min 152 W/m 12,6 km/h (3 Bft) 93,48 %
04.04.2016 18:40 17,2 C 17,2 C 13,9 C 56 % 0 lf 1005,2 hPa 0,0 l/m 2 min 0 min 172 W/m 14,6 km/h (3 Bft) 97,87 %
04.04.2016 18:42 17,1 C 17,2 C 13,9 C 56 % 0 lf 1005,3 hPa 0,0 l/m 2 min 0 min 164 W/m 16,7 km/h (3 Bft) 93,62 %
04.04.2016 18:44 17,1 C 16,7 C 13,9 C 55 % 0 lf 1005,3 hPa 0,0 l/m 2 min 0 min 156 W/m 20,9 km/h (4 Bft) 97,87 %
04.04.2016 18:46 17,1 C 16,7 C 13,9 C 56 % 0 lf 1005,3 hPa 0,0 l/m 2 min 0 min 150 W/m 18,8 km/h (3 Bft) 97,87 %
04.04.2016 18:48 17,1 C 16,7 C 13,9 C 56 % 0 lf 1005,3 hPa 0,0 l/m 2 min 0 min 144 W/m 16,7 km/h (3 Bft) 95,74 %
04.04.2016 18:50 17,1 C 16,7 C 13,9 C 56 % 0 lf 1005,3 hPa 0,0 l/m 2 min 0 min 138 W/m 14,6 km/h (3 Bft) 97,83 %
04.04.2016 18:52 17,0 C 16,7 C 13,9 C 56 % 0 lf 1005,3 hPa 0,0 l/m 2 min 0 min 130 W/m 14,6 km/h (3 Bft) 95,74 %
04.04.2016 18:54 17,0 C 16,7 C 13,9 C 56 % 0 lf 1005,4 hPa 0,0 l/m 2 min 0 min 125 W/m 14,6 km/h (3 Bft) 95,74 %
04.04.2016 18:56 17,0 C 16,7 C 13,9 C 56 % 0 lf 1005,4 hPa 0,0 l/m 2 min 0 min 120 W/m 16,7 km/h (3 Bft) 95,74 %
04.04.2016 18:58 17,0 C 16,7 C 13,9 C 57 % 0 lf 1005,4 hPa 0,0 l/m 2 min 0 min 108 W/m 12,6 km/h (3 Bft) 93,62 %
04.04.2016 19:00 16,9 C 16,7 C 13,9 C 57 % 0 lf 1005,4 hPa 0,0 l/m 2 min 0 min 108 W/m 10,5 km/h (2 Bft) 95,74 %
04.04.2016 19:02 16,9 C 16,7 C 13,9 C 57 % 0 lf 1005,5 hPa 0,0 l/m 2 min 0 min 109 W/m 14,6 km/h (3 Bft) 95,65 %
04.04.2016 19:04 16,9 C 16,7 C 13,9 C 57 % 0 lf 1005,4 hPa 0,0 l/m 2 min 0 min 108 W/m 16,7 km/h (3 Bft) 97,87 %
04.04.2016 19:06 16,9 C 16,7 C 13,9 C 57 % 0 lf 1005,4 hPa 0,0 l/m 2 min 0 min 102 W/m 12,6 km/h (3 Bft) 95,74 %
04.04.2016 19:08 16,9 C 16,7 C 13,9 C 57 % 0 lf 1005,4 hPa 0,0 l/m 2 min 0 min 89 W/m 10,5 km/h (2 Bft) 93,62 %
04.04.2016 19:10 16,8 C 16,7 C 13,9 C 57 % 0 lf 1005,4 hPa 0,0 l/m 0 min 0 min 64 W/m 12,6 km/h (3 Bft) 97,87 %
04.04.2016 19:12 16,8 C 16,7 C 13,9 C 57 % 0 lf 1005,4 hPa 0,0 l/m 0 min 0 min 60 W/m 10,5 km/h (2 Bft) 95,74 %
04.04.2016 19:14 16,8 C 16,7 C 13,9 C 58 % 0 lf 1005,5 hPa 0,0 l/m 0 min 0 min 54 W/m 10,5 km/h (2 Bft) 97,83 %
04.04.2016 19:16 16,8 C 16,7 C 13,9 C 58 % 0 lf 1005,5 hPa 0,0 l/m 0 min 0 min 49 W/m 14,6 km/h (3 Bft) 97,87 %
04.04.2016 19:18 16,8 C 16,7 C 13,9 C 58 % 0 lf 1005,4 hPa 0,0 l/m 0 min 0 min 47 W/m 14,6 km/h (3 Bft) 89,36 %
04.04.2016 19:20 16,7 C 16,7 C 13,9 C 58 % 0 lf 1005,5 hPa 0,0 l/m 0 min 0 min 46 W/m 14,6 km/h (3 Bft) 93,62 %
04.04.2016 19:22 16,7 C 16,1 C 13,9 C 58 % 0 lf 1005,5 hPa 0,0 l/m 0 min 0 min 46 W/m 14,6 km/h (3 Bft) 97,87 %
04.04.2016 19:24 16,7 C 16,1 C 13,3 C 58 % 0 lf 1005,5 hPa 0,0 l/m 0 min 0 min 43 W/m 8,4 km/h (2 Bft) 95,65 %
04.04.2016 19:26 16,7 C 16,1 C 13,3 C 58 % 0 lf 1005,5 hPa 0,0 l/m 0 min 0 min 42 W/m 8,4 km/h (2 Bft) 95,74 %
04.04.2016 19:28 16,7 C 16,1 C 13,3 C 58 % 0 lf 1005,6 hPa 0,0 l/m 0 min 0 min 41 W/m 4,2 km/h (1 Bft) 91,49 %
04.04.2016 19:30 16,7 C 16,1 C 13,3 C 58 % 0 lf 1005,5 hPa 0,0 l/m 0 min 0 min 38 W/m 6,3 km/h (2 Bft) 93,75 %
04.04.2016 19:32 16,7 C 16,1 C 13,3 C 58 % 0 lf 1005,5 hPa 0,0 l/m 0 min 0 min 33 W/m 6,3 km/h (2 Bft) 95,74 %
04.04.2016 19:34 16,7 C 16,1 C 13,3 C 58 % 0 lf 1005,5 hPa 0,0 l/m 0 min 0 min 31 W/m 8,4 km/h (2 Bft) 95,65 %
04.04.2016 19:36 16,6 C 15,6 C 13,3 C 58 % 0 lf 1005,6 hPa 0,0 l/m 0 min 0 min 30 W/m 10,5 km/h (2 Bft) 97,87 %
04.04.2016 19:38 16,6 C 15,6 C 12,8 C 58 % 0 lf 1005,7 hPa 0,0 l/m 0 min 0 min 30 W/m 6,3 km/h (2 Bft) 94,29 %
04.04.2016 19:40 16,6 C 15,6 C 12,8 C 58 % 0 lf 1005,6 hPa 0,0 l/m 0 min 0 min 29 W/m 4,2 km/h (1 Bft) 94,74 %
04.04.2016 19:42 16,6 C 15,6 C 12,8 C 58 % 0 lf 1005,6 hPa 0,0 l/m 0 min 0 min 28 W/m 4,2 km/h (1 Bft) 95,74 %
04.04.2016 19:44 16,5 C 15,6 C 12,8 C 58 % 0 lf 1005,6 hPa 0,0 l/m 0 min 0 min 27 W/m 4,2 km/h (1 Bft) 95,74 %
04.04.2016 19:46 16,5 C 15,0 C 12,2 C 58 % 0 lf 1005,7 hPa 0,0 l/m 0 min 0 min 25 W/m 4,2 km/h (1 Bft) 91,49 %
04.04.2016 19:48 16,4 C 15,0 C 12,2 C 58 % 0 lf 1005,7 hPa 0,0 l/m 0 min 0 min 22 W/m 4,2 km/h (1 Bft) 95,65 %
04.04.2016 19:50 16,4 C 15,0 C 12,2 C 58 % 0 lf 1005,7 hPa 0,0 l/m 0 min 0 min 20 W/m 4,2 km/h (1 Bft) 95,74 %
04.04.2016 19:52 16,4 C 14,4 C 12,2 C 58 % 0 lf 1005,7 hPa 0,0 l/m 0 min 0 min 18 W/m 4,2 km/h (1 Bft) 95,74 %
04.04.2016 19:54 16,4 C 14,4 C 12,2 C 59 % 0 lf 1005,8 hPa 0,0 l/m 0 min 0 min 18 W/m 0,0 km/h (0 Bft) 91,49 %
04.04.2016 19:56 16,3 C 14,4 C 11,7 C 59 % 0 lf 1005,7 hPa 0,0 l/m 0 min 0 min 16 W/m 4,2 km/h (1 Bft) 95,74 %
04.04.2016 19:58 16,3 C 14,4 C 11,7 C 59 % 0 lf 1005,8 hPa 0,0 l/m 0 min 0 min 15 W/m 4,2 km/h (1 Bft) 95,74 %
04.04.2016 20:00 16,2 C 13,9 C 11,7 C 59 % 0 lf 1005,7 hPa 0,0 l/m 0 min 0 min 14 W/m 2,1 km/h (1 Bft) 97,83 %
04.04.2016 20:02 16,2 C 13,9 C 11,7 C 59 % 0 lf 1005,7 hPa 0,0 l/m 0 min 0 min 13 W/m 2,1 km/h (1 Bft) 95,74 %
04.04.2016 20:04 16,1 C 13,9 C 11,1 C 60 % 0 lf 1005,7 hPa 0,0 l/m 0 min 0 min 12 W/m 0,0 km/h (0 Bft) 93,62 %
04.04.2016 20:06 16,1 C 13,9 C 11,1 C 60 % 0 lf 1005,6 hPa 0,0 l/m 0 min 0 min 12 W/m 2,1 km/h (1 Bft) 97,87 %
04.04.2016 20:08 15,9 C 13,3 C 11,1 C 60 % 0 lf 1005,7 hPa 0,0 l/m 0 min 0 min 11 W/m 2,1 km/h (1 Bft) 97,87 %
04.04.2016 20:10 15,9 C 13,3 C 11,1 C 61 % 0 lf 1005,7 hPa 0,0 l/m 0 min 0 min 9 W/m 2,1 km/h (1 Bft) 95,74 %
04.04.2016 20:12 15,8 C 13,3 C 11,1 C 62 % 0 lf 1005,6 hPa 0,0 l/m 0 min 0 min 8 W/m 2,1 km/h (1 Bft) 95,65 %
04.04.2016 20:14 15,7 C 13,3 C 10,6 C 62 % 0 lf 1005,7 hPa 0,0 l/m 0 min 0 min 7 W/m 2,1 km/h (1 Bft) 97,87 %
04.04.2016 20:16 15,6 C 12,8 C 10,6 C 62 % 0 lf 1005,7 hPa 0,0 l/m 0 min 0 min 7 W/m 2,1 km/h (1 Bft) 91,49 %
04.04.2016 20:18 15,5 C 12,8 C 10,6 C 63 % 0 lf 1005,7 hPa 0,0 l/m 0 min 0 min 5 W/m 0,0 km/h (0 Bft) 97,87 %
04.04.2016 20:20 15,4 C 12,8 C 10,6 C 63 % 0 lf 1005,8 hPa 0,0 l/m 0 min 0 min 5 W/m 0,0 km/h (0 Bft) 91,49 %
04.04.2016 20:22 15,3 C 12,8 C 10,6 C 64 % 0 lf 1005,7 hPa 0,0 l/m 0 min 0 min 2 W/m 0,0 km/h (0 Bft) 97,87 %
04.04.2016 20:24 15,2 C 12,8 C 10,6 C 64 % 0 lf 1005,8 hPa 0,0 l/m 0 min 0 min 0 W/m 0,0 km/h (0 Bft) 97,83 %
04.04.2016 20:26 15,1 C 12,2 C 10,6 C 64 % 0 lf 1005,8 hPa 0,0 l/m 0 min 0 min 0 W/m 0,0 km/h (0 Bft) 95,74 %
04.04.2016 20:28 15,0 C 12,2 C 10,0 C 65 % 0 lf 1005,8 hPa 0,0 l/m 0 min 0 min 0 W/m 4,2 km/h (1 Bft) 97,87 %
04.04.2016 20:30 14,9 C 12,2 C 10,0 C 65 % 0 lf 1005,8 hPa 0,0 l/m 0 min 0 min 0 W/m 2,1 km/h (1 Bft) 97,87 %
04.04.2016 20:32 14,8 C 12,2 C 10,0 C 66 % 0 lf 1005,8 hPa 0,0 l/m 0 min 0 min 0 W/m 4,2 km/h (1 Bft) 95,74 %
04.04.2016 20:34 14,7 C 12,2 C 10,0 C 66 % 0 lf 1005,8 hPa 0,0 l/m 0 min 0 min 0 W/m 4,2 km/h (1 Bft) 97,87 %
04.04.2016 20:36 14,6 C 12,2 C 10,0 C 66 % 0 lf 1005,9 hPa 0,0 l/m 0 min 0 min 0 W/m 2,1 km/h (1 Bft) 97,83 %
04.04.2016 20:38 14,5 C 12,2 C 10,0 C 67 % 0 lf 1006,0 hPa 0,0 l/m 0 min 0 min 0 W/m 2,1 km/h (1 Bft) 95,74 %
04.04.2016 20:40 14,4 C 11,7 C 10,0 C 67 % 0 lf 1005,9 hPa 0,0 l/m 0 min 0 min 0 W/m 0,0 km/h (0 Bft) 97,87 %
04.04.2016 20:42 14,2 C 11,7 C 10,0 C 68 % 0 lf 1005,9 hPa 0,0 l/m 0 min 0 min 0 W/m 2,1 km/h (1 Bft) 95,74 %
04.04.2016 20:44 14,2 C 11,7 C 10,0 C 68 % 0 lf 1005,9 hPa 0,0 l/m 0 min 0 min 0 W/m 2,1 km/h (1 Bft) 97,92 %
04.04.2016 20:46 14,2 C 11,7 C 10,0 C 68 % 0 lf 1005,9 hPa 0,0 l/m 0 min 0 min 0 W/m 0,0 km/h (0 Bft) 100,00 %
04.04.2016 20:48 14,1 C 11,7 C 10,0 C 68 % 0 lf 1005,9 hPa 0,0 l/m 0 min 0 min 0 W/m 0,0 km/h (0 Bft) 97,87 %
04.04.2016 20:50 14,0 C 11,7 C 9,4 C 69 % 0 lf 1005,8 hPa 0,0 l/m 0 min 0 min 0 W/m 0,0 km/h (0 Bft) 93,62 %
04.04.2016 20:52 13,9 C 11,1 C 9,4 C 69 % 0 lf 1005,9 hPa 0,0 l/m 0 min 0 min 0 W/m 2,1 km/h (1 Bft) 97,87 %
04.04.2016 20:54 13,8 C 11,1 C 9,4 C 69 % 0 lf 1005,9 hPa 0,0 l/m 0 min 0 min 0 W/m 0,0 km/h (0 Bft) 95,74 %
04.04.2016 20:56 13,7 C 11,1 C 9,4 C 70 % 0 lf 1005,9 hPa 0,0 l/m 0 min 0 min 0 W/m 0,0 km/h (0 Bft) 97,87 %
04.04.2016 20:58 13,6 C 11,1 C 9,4 C 70 % 0 lf 1005,9 hPa 0,0 l/m 0 min 0 min 0 W/m 0,0 km/h (0 Bft) 97,83 %
04.04.2016 21:00 13,6 C 11,1 C 9,4 C 70 % 0 lf 1005,9 hPa 0,0 l/m 0 min 0 min 0 W/m 0,0 km/h (0 Bft) 97,87 %
04.04.2016 21:02 13,4 C 11,1 C 9,4 C 70 % 0 lf 1005,9 hPa 0,0 l/m 0 min 0 min 0 W/m 0,0 km/h (0 Bft) 97,87 %
04.04.2016 21:04 13,4 C 11,1 C 9,4 C 70 % 0 lf 1005,9 hPa 0,0 l/m 0 min 0 min 0 W/m 0,0 km/h (0 Bft) 97,87 %
04.04.2016 21:06 13,3 C 11,1 C 9,4 C 71 % 0 lf 1005,9 hPa 0,0 l/m 0 min 0 min 0 W/m 0,0 km/h (0 Bft) 100,00 %
04.04.2016 21:08 13,2 C 10,6 C 9,4 C 71 % 0 lf 1005,9 hPa 0,0 l/m 0 min 0 min 0 W/m 0,0 km/h (0 Bft) 95,74 %
04.04.2016 21:10 13,2 C 11,1 C 8,9 C 71 % 0 lf 1005,9 hPa 0,0 l/m 0 min 0 min 0 W/m 2,1 km/h (1 Bft) 97,83 %
04.04.2016 21:12 13,1 C 11,1 C 8,9 C 71 % 0 lf 1005,9 hPa 0,0 l/m 0 min 0 min 0 W/m 4,2 km/h (1 Bft) 100,00 %
04.04.2016 21:14 13,0 C 10,6 C 8,9 C 71 % 0 lf 1005,9 hPa 0,0 l/m 0 min 0 min 0 W/m 4,2 km/h (1 Bft) 100,00 %
04.04.2016 21:16 12,9 C 10,6 C 8,9 C 71 % 0 lf 1005,9 hPa 0,0 l/m 0 min 0 min 0 W/m 4,2 km/h (1 Bft) 100,00 %
04.04.2016 21:18 12,8 C 10,6 C 8,9 C 72 % 0 lf 1005,9 hPa 0,0 l/m 0 min 0 min 0 W/m 6,3 km/h (2 Bft) 97,87 %
04.04.2016 21:20 12,8 C 10,6 C 8,9 C 72 % 0 lf 1005,9 hPa 0,0 l/m 0 min 0 min 0 W/m 4,2 km/h (1 Bft) 95,74 %
04.04.2016 21:22 12,7 C 10,6 C 8,9 C 72 % 0 lf 1006,0 hPa 0,0 l/m 0 min 0 min 0 W/m 4,2 km/h (1 Bft) 100,00 %
04.04.2016 21:24 12,7 C 10,6 C 8,9 C 72 % 0 lf 1006,0 hPa 0,0 l/m 0 min 0 min 0 W/m 4,2 km/h (1 Bft) 100,00 %
04.04.2016 21:26 12,6 C 10,6 C 8,9 C 72 % 0 lf 1006,0 hPa 0,0 l/m 0 min 0 min 0 W/m 4,2 km/h (1 Bft) 100,00 %
04.04.2016 21:28 12,5 C 10,6 C 8,9 C 73 % 0 lf 1006,1 hPa 0,0 l/m 0 min 0 min 0 W/m 2,1 km/h (1 Bft) 95,74 %
04.04.2016 21:30 12,5 C 10,6 C 8,9 C 73 % 0 lf 1006,0 hPa 0,0 l/m 0 min 0 min 0 W/m 2,1 km/h (1 Bft) 97,87 %
04.04.2016 21:32 12,4 C 11,1 C 8,9 C 73 % 0 lf 1006,0 hPa 0,0 l/m 0 min 0 min 0 W/m 2,1 km/h (1 Bft) 100,00 %
04.04.2016 21:34 12,4 C 10,6 C 8,9 C 73 % 0 lf 1006,1 hPa 0,0 l/m 0 min 0 min 0 W/m 0,0 km/h (0 Bft) 95,65 %
04.04.2016 21:36 12,3 C 10,6 C 8,9 C 73 % 0 lf 1006,1 hPa 0,0 l/m 0 min 0 min 0 W/m 0,0 km/h (0 Bft) 97,87 %
04.04.2016 21:38 12,2 C 10,6 C 8,3 C 73 % 0 lf 1006,1 hPa 0,0 l/m 0 min 0 min 0 W/m 0,0 km/h (0 Bft) 100,00 %
04.04.2016 21:40 12,2 C 10,0 C 8,3 C 73 % 0 lf 1006,1 hPa 0,0 l/m 0 min 0 min 0 W/m 0,0 km/h (0 Bft) 100,00 %
04.04.2016 21:42 12,1 C 10,6 C 8,3 C 73 % 0 lf 1006,1 hPa 0,0 l/m 0 min 0 min 0 W/m 0,0 km/h (0 Bft) 95,74 %
04.04.2016 21:44 12,1 C 10,6 C 8,3 C 74 % 0 lf 1006,2 hPa 0,0 l/m 0 min 0 min 0 W/m 0,0 km/h (0 Bft) 100,00 %
04.04.2016 21:46 12,0 C 10,6 C 8,3 C 74 % 0 lf 1006,0 hPa 0,0 l/m 0 min 0 min 0 W/m 0,0 km/h (0 Bft) 97,83 %
04.04.2016 21:48 11,9 C 10,6 C 8,3 C 74 % 0 lf 1006,0 hPa 0,0 l/m 0 min 0 min 0 W/m 0,0 km/h (0 Bft) 97,87 %
04.04.2016 21:50 11,9 C 10,6 C 8,3 C 75 % 0 lf 1006,0 hPa 0,0 l/m 0 min 0 min 0 W/m 0,0 km/h (0 Bft) 95,74 %
04.04.2016 21:52 11,8 C 10,0 C 8,3 C 75 % 0 lf 1006,0 hPa 0,0 l/m 0 min 0 min 0 W/m 0,0 km/h (0 Bft) 95,74 %
04.04.2016 21:54 11,8 C 10,0 C 8,3 C 75 % 0 lf 1006,0 hPa 0,0 l/m 0 min 0 min 2 W/m 0,0 km/h (0 Bft) 97,87 %
04.04.2016 21:56 11,7 C 10,0 C 8,3 C 75 % 0 lf 1006,0 hPa 0,0 l/m 0 min 0 min 2 W/m 0,0 km/h (0 Bft) 97,83 %
04.04.2016 21:58 11,7 C 10,0 C 8,3 C 75 % 0 lf 1005,9 hPa 0,0 l/m 0 min 0 min 0 W/m 0,0 km/h (0 Bft) 95,74 %
04.04.2016 22:00 11,6 C 10,0 C 8,3 C 75 % 0 lf 1005,9 hPa 0,0 l/m 0 min 0 min 0 W/m 0,0 km/h (0 Bft) 97,87 %
04.04.2016 22:02 11,6 C 10,0 C 8,3 C 75 % 0 lf 1005,9 hPa 0,0 l/m 0 min 0 min 0 W/m 0,0 km/h (0 Bft) 95,74 %
04.04.2016 22:04 11,5 C 9,4 C 7,8 C 75 % 0 lf 1005,9 hPa 0,0 l/m 0 min 0 min 0 W/m 0,0 km/h (0 Bft) 97,87 %
04.04.2016 22:06 11,4 C 9,4 C 7,8 C 75 % 0 lf 1005,9 hPa 0,0 l/m 0 min 0 min 0 W/m 0,0 km/h (0 Bft) 97,87 %
04.04.2016 22:08 11,4 C 9,4 C 7,8 C 75 % 0 lf 1005,9 hPa 0,0 l/m 0 min 0 min 0 W/m 0,0 km/h (0 Bft) 95,65 %
04.04.2016 22:10 11,3 C 9,4 C 7,8 C 75 % 0 lf 1005,9 hPa 0,0 l/m 0 min 0 min 0 W/m 0,0 km/h (0 Bft) 95,74 %
04.04.2016 22:12 11,3 C 10,0 C 7,8 C 76 % 0 lf 1005,9 hPa 0,0 l/m 0 min 0 min 0 W/m 0,0 km/h (0 Bft) 93,62 %
04.04.2016 22:14 11,2 C 10,0 C 7,8 C 76 % 0 lf 1005,9 hPa 0,0 l/m 0 min 0 min 0 W/m 4,2 km/h (1 Bft) 93,62 %
04.04.2016 22:16 11,2 C 10,0 C 7,8 C 77 % 0 lf 1005,9 hPa 0,0 l/m 0 min 0 min 0 W/m 4,2 km/h (1 Bft) 95,74 %
04.04.2016 22:18 11,2 C 10,0 C 7,8 C 77 % 0 lf 1005,9 hPa 0,0 l/m 0 min 0 min 0 W/m 4,2 km/h (1 Bft) 95,74 %
04.04.2016 22:20 11,1 C 10,0 C 7,8 C 77 % 0 lf 1005,9 hPa 0,0 l/m 0 min 0 min 0 W/m 4,2 km/h (1 Bft) 95,65 %
04.04.2016 22:22 11,1 C 10,0 C 7,8 C 77 % 0 lf 1005,9 hPa 0,0 l/m 0 min 0 min 0 W/m 2,1 km/h (1 Bft) 85,11 %
04.04.2016 22:24 11,0 C 9,4 C 7,8 C 77 % 0 lf 1005,9 hPa 0,0 l/m 0 min 0 min 0 W/m 2,1 km/h (1 Bft) 91,49 %
04.04.2016 22:26 10,9 C 9,4 C 7,8 C 77 % 0 lf 1005,8 hPa 0,0 l/m 0 min 0 min 0 W/m 2,1 km/h (1 Bft) 91,49 %
04.04.2016 22:28 10,9 C 9,4 C 7,8 C 77 % 0 lf 1005,8 hPa 0,0 l/m 0 min 0 min 0 W/m 2,1 km/h (1 Bft) 91,49 %
04.04.2016 22:30 10,8 C 9,4 C 7,8 C 77 % 0 lf 1005,8 hPa 0,0 l/m 0 min 0 min 0 W/m 0,0 km/h (0 Bft) 89,36 %
04.04.2016 22:32 10,8 C 8,9 C 7,8 C 77 % 0 lf 1005,8 hPa 0,0 l/m 0 min 0 min 0 W/m 0,0 km/h (0 Bft) 91,30 %
04.04.2016 22:34 10,8 C 8,9 C 7,8 C 77 % 0 lf 1005,8 hPa 0,0 l/m 0 min 0 min 0 W/m 0,0 km/h (0 Bft) 89,36 %
04.04.2016 22:36 10,7 C 8,9 C 7,8 C 77 % 0 lf 1005,8 hPa 0,0 l/m 0 min 0 min 0 W/m 0,0 km/h (0 Bft) 89,36 %
04.04.2016 22:38 10,7 C 8,9 C 7,8 C 77 % 0 lf 1005,7 hPa 0,0 l/m 0 min 0 min 0 W/m 0,0 km/h (0 Bft) 93,62 %
04.04.2016 22:40 10,6 C 8,9 C 7,8 C 77 % 0 lf 1005,6 hPa 0,0 l/m 0 min 0 min 0 W/m 0,0 km/h (0 Bft) 85,11 %
04.04.2016 22:42 10,6 C 8,9 C 7,2 C 77 % 0 lf 1005,6 hPa 0,0 l/m 0 min 0 min 0 W/m 0,0 km/h (0 Bft) 93,62 %
04.04.2016 22:44 10,6 C 8,9 C 7,2 C 77 % 0 lf 1005,6 hPa 0,0 l/m 0 min 0 min 0 W/m 0,0 km/h (0 Bft) 89,13 %
04.04.2016 22:46 10,5 C 8,9 C 7,2 C 77 % 0 lf 1005,6 hPa 0,0 l/m 0 min 0 min 0 W/m 0,0 km/h (0 Bft) 91,49 %
04.04.2016 22:48 10,4 C 8,9 C 7,2 C 77 % 0 lf 1005,7 hPa 0,0 l/m 0 min 0 min 0 W/m 0,0 km/h (0 Bft) 89,36 %
04.04.2016 22:50 10,4 C 8,9 C 7,8 C 78 % 0 lf 1005,7 hPa 0,0 l/m 0 min 0 min 0 W/m 0,0 km/h (0 Bft) 91,49 %
04.04.2016 22:52 10,4 C 8,9 C 7,8 C 78 % 0 lf 1005,6 hPa 0,0 l/m 0 min 0 min 0 W/m 0,0 km/h (0 Bft) 91,49 %
04.04.2016 22:54 10,3 C 8,9 C 7,8 C 78 % 0 lf 1005,6 hPa 0,0 l/m 0 min 0 min 0 W/m 0,0 km/h (0 Bft) 93,62 %
04.04.2016 22:56 10,3 C 8,9 C 7,8 C 78 % 0 lf 1005,6 hPa 0,0 l/m 0 min 0 min 0 W/m 0,0 km/h (0 Bft) 91,30 %
04.04.2016 22:58 10,3 C 8,9 C 7,8 C 78 % 0 lf 1005,7 hPa 0,0 l/m 0 min 0 min 0 W/m 0,0 km/h (0 Bft) 93,62 %
04.04.2016 23:00 10,2 C 8,3 C 7,8 C 78 % 0 lf 1005,7 hPa 0,0 l/m 0 min 0 min 0 W/m 0,0 km/h (0 Bft) 91,49 %
04.04.2016 23:02 10,2 C 8,9 C 7,8 C 78 % 0 lf 1005,8 hPa 0,0 l/m 0 min 0 min 0 W/m 0,0 km/h (0 Bft) 91,49 %
04.04.2016 23:04 10,2 C 8,9 C 7,8 C 79 % 0 lf 1005,8 hPa 0,0 l/m 0 min 0 min 0 W/m 0,0 km/h (0 Bft) 93,62 %
04.04.2016 23:06 10,1 C 9,4 C 7,8 C 79 % 0 lf 1005,8 hPa 0,0 l/m 0 min 0 min 0 W/m 0,0 km/h (0 Bft) 91,49 %
04.04.2016 23:08 10,1 C 9,4 C 7,2 C 80 % 0 lf 1005,7 hPa 0,0 l/m 0 min 0 min 0 W/m 0,0 km/h (0 Bft) 97,83 %
04.04.2016 23:10 10,1 C 9,4 C 7,2 C 80 % 0 lf 1005,6 hPa 0,0 l/m 0 min 0 min 0 W/m 0,0 km/h (0 Bft) 97,87 %
04.04.2016 23:12 10,1 C 9,4 C 7,2 C 80 % 0 lf 1005,6 hPa 0,0 l/m 0 min 0 min 0 W/m 0,0 km/h (0 Bft) 95,74 %
04.04.2016 23:14 10,0 C 8,9 C 7,2 C 80 % 0 lf 1005,5 hPa 0,0 l/m 0 min 0 min 0 W/m 0,0 km/h (0 Bft) 97,87 %
04.04.2016 23:16 10,0 C 8,9 C 7,2 C 80 % 0 lf 1005,5 hPa 0,0 l/m 0 min 0 min 0 W/m 0,0 km/h (0 Bft) 100,00 %
04.04.2016 23:18 9,9 C 8,3 C 7,2 C 80 % 0 lf 1005,4 hPa 0,0 l/m 0 min 0 min 0 W/m 0,0 km/h (0 Bft) 97,83 %
04.04.2016 23:20 9,9 C 8,9 C 7,2 C 80 % 0 lf 1005,4 hPa 0,0 l/m 0 min 0 min 0 W/m 0,0 km/h (0 Bft) 95,74 %
04.04.2016 23:22 9,9 C 8,3 C 7,2 C 80 % 0 lf 1005,3 hPa 0,0 l/m 0 min 0 min 0 W/m 0,0 km/h (0 Bft) 97,87 %
04.04.2016 23:24 9,8 C 8,9 C 7,2 C 80 % 0 lf 1005,3 hPa 0,0 l/m 0 min 0 min 0 W/m 0,0 km/h (0 Bft) 97,87 %
04.04.2016 23:26 9,8 C 8,9 C 7,2 C 81 % 0 lf 1005,3 hPa 0,0 l/m 0 min 0 min 0 W/m 0,0 km/h (0 Bft) 100,00 %
04.04.2016 23:28 9,8 C 8,9 C 7,2 C 81 % 0 lf 1005,3 hPa 0,0 l/m 0 min 0 min 0 W/m 0,0 km/h (0 Bft) 97,87 %
04.04.2016 23:30 9,7 C 8,9 C 7,2 C 81 % 0 lf 1005,2 hPa 0,0 l/m 0 min 0 min 0 W/m 0,0 km/h (0 Bft) 95,65 %
04.04.2016 23:32 9,7 C 8,9 C 7,2 C 82 % 0 lf 1005,4 hPa 0,0 l/m 0 min 0 min 0 W/m 0,0 km/h (0 Bft) 97,87 %
04.04.2016 23:34 9,7 C 8,9 C 7,2 C 82 % 0 lf 1005,2 hPa 0,0 l/m 0 min 0 min 0 W/m 0,0 km/h (0 Bft) 100,00 %
04.04.2016 23:36 9,7 C 8,9 C 7,2 C 83 % 0 lf 1005,3 hPa 0,0 l/m 0 min 0 min 0 W/m 0,0 km/h (0 Bft) 97,87 %
04.04.2016 23:38 9,6 C 8,9 C 7,2 C 83 % 0 lf 1005,2 hPa 0,0 l/m 0 min 0 min 0 W/m 2,1 km/h (1 Bft) 97,87 %
04.04.2016 23:40 9,6 C 8,9 C 7,2 C 83 % 0 lf 1005,2 hPa 0,0 l/m 0 min 0 min 0 W/m 0,0 km/h (0 Bft) 95,74 %
04.04.2016 23:42 9,6 C 8,9 C 7,2 C 83 % 0 lf 1005,2 hPa 0,0 l/m 0 min 0 min 0 W/m 0,0 km/h (0 Bft) 97,83 %
04.04.2016 23:44 9,6 C 8,9 C 7,2 C 83 % 0 lf 1005,2 hPa 0,0 l/m 0 min 0 min 0 W/m 4,2 km/h (1 Bft) 95,74 %
04.04.2016 23:46 9,6 C 9,4 C 7,2 C 83 % 0 lf 1005,3 hPa 0,0 l/m 0 min 0 min 0 W/m 2,1 km/h (1 Bft) 97,87 %
04.04.2016 23:48 9,5 C 9,4 C 7,2 C 83 % 0 lf 1005,2 hPa 0,0 l/m 0 min 0 min 0 W/m 2,1 km/h (1 Bft) 97,87 %
04.04.2016 23:50 9,4 C 9,4 C 7,2 C 84 % 0 lf 1005,3 hPa 0,0 l/m 0 min 0 min 0 W/m 2,1 km/h (1 Bft) 100,00 %
04.04.2016 23:52 9,4 C 9,4 C 7,2 C 84 % 0 lf 1005,2 hPa 0,0 l/m 0 min 0 min 0 W/m 4,2 km/h (1 Bft) 97,87 %
04.04.2016 23:54 9,4 C 9,4 C 7,2 C 84 % 0 lf 1005,3 hPa 0,0 l/m 0 min 0 min 0 W/m 4,2 km/h (1 Bft) 100,00 %
04.04.2016 23:56 9,4 C 9,4 C 7,8 C 84 % 0 lf 1005,4 hPa 0,0 l/m 0 min 0 min 0 W/m 4,2 km/h (1 Bft) 100,00 %
04.04.2016 23:58 9,4 C 9,4 C 7,8 C 84 % 0 lf 1005,4 hPa 0,0 l/m 0 min 0 min 0 W/m 2,1 km/h (1 Bft) 93,62 %
_ Min-Zeit 23:50 23:00 22:42 18:44 00:00 05:24 - - - - 19:54 22:22
Minimum _ 9,4 C 8,3 C 7,2 C 55 % 0 lf 1004,0 hPa - - - - 0,0 km/h (0 Bft) 85,11 %
_ Max-Zeit 16:36 15:56 12:56 02:42 01:32 13:54 01:08 07:42 00:30 12:56 11:28 01:06
Maximum _ 18,0 C 26,1 C 18,9 C 95 % 15 lf 1006,9 hPa 0,2 l/m 2 min 2 min 970 W/m 46,0 km/h
SW (6 Bft)
100,00 %
Durchschnitt _ 14,1 C 14,9 C 12,1 C 78 % 1 lf 1005,5 hPa #1,0 l/m #6:18 h #1:34 h 248 W/m 15,0 km/h (3 Bft) 96,02 %
© 2016 W. Hausmann